Observation data for Stamford on 12/08/2018      Previous  Date       Current Mesonet Observations  Soil Data  Daily Summary Page  Observations in Plain Language
KST2 080600Z 02010KT 02/01 A3029 RMK A01 T00170014  RH  098%=      5-min Rain = 0
KST2 080601Z 02010KT 02/01 A3028 RMK A01 T00170014  RH  098%=      5-min Rain = 0.01
KST2 080602Z 02008KT 02/01 A3028 RMK A01 T00170014  RH  098%=      5-min Rain = 0
KST2 080603Z 02009KT 02/01 A3028 RMK A01 T00170014  RH  098%=      5-min Rain = 0
KST2 080604Z 02011KT 02/01 A3028 RMK A01 T00170014  RH  098%=      5-min Rain = 0
KST2 080605Z 01009KT 02/01 A3029 RMK A01 T00170014  RH  098%=      5-min Rain = 0
KST2 080606Z 01011KT 02/01 A3029 RMK A01 T00170014  RH  098%=      5-min Rain = 0
KST2 080607Z 01013KT 02/01 A3028 RMK A01 T00170014  RH  098%=      5-min Rain = 0
KST2 080608Z 00013KT 02/01 A3028 RMK A01 T00170014  RH  098%=      5-min Rain = 0
KST2 080609Z 01013KT 02/01 A3028 RMK A01 T00170013  RH  098%=      5-min Rain = 0
KST2 080610Z 01013KT 02/01 A3028 RMK A01 T00170013  RH  098%=      5-min Rain = 0
KST2 080611Z 01012KT 02/01 A3028 RMK A01 T00170013  RH  097%=      5-min Rain = 0.01
KST2 080612Z 00012KT 02/01 A3028 RMK A01 T00170013  RH  097%=      5-min Rain = 0
KST2 080613Z 01013KT 02/01 A3028 RMK A01 T00170013  RH  097%=      5-min Rain = 0
KST2 080614Z 01010KT 02/01 A3028 RMK A01 T00170013  RH  097%=      5-min Rain = 0
KST2 080615Z 01010KT 02/01 A3028 RMK A01 T00170013  RH  097%=      5-min Rain = 0
KST2 080616Z 01012KT 02/01 A3028 RMK A01 T00170013  RH  098%=      5-min Rain = 0
KST2 080617Z 01011KT 02/01 A3028 RMK A01 T00170013  RH  098%=      5-min Rain = 0
KST2 080618Z 01011KT 02/01 A3029 RMK A01 T00160013  RH  098%=      5-min Rain = 0
KST2 080619Z 02011KT 02/01 A3029 RMK A01 T00170013  RH  098%=      5-min Rain = 0
KST2 080620Z 02013KT 02/01 A3029 RMK A01 T00160012  RH  097%=      5-min Rain = 0
KST2 080621Z 02011KT 02/01 A3029 RMK A01 T00160011  RH  097%=      5-min Rain = 0
KST2 080622Z 02011KT 02/01 A3029 RMK A01 T00160011  RH  097%=      5-min Rain = 0
KST2 080623Z 02009KT 02/01 A3029 RMK A01 T00160011  RH  097%=      5-min Rain = 0
KST2 080624Z 02009KT 02/01 A3029 RMK A01 T00160011  RH  097%=      5-min Rain = 0.01
KST2 080625Z 02010KT 02/01 A3029 RMK A01 T00160011  RH  097%=      5-min Rain = 0
KST2 080626Z 02011KT 02/01 A3029 RMK A01 T00160011  RH  097%=      5-min Rain = 0
KST2 080627Z 02010KT 02/01 A3029 RMK A01 T00150011  RH  097%=      5-min Rain = 0
KST2 080628Z 02011KT 02/01 A3029 RMK A01 T00150011  RH  097%=      5-min Rain = 0
KST2 080629Z 01009KT 02/01 A3029 RMK A01 T00150011  RH  097%=      5-min Rain = 0
KST2 080630Z 01011KT 02/01 A3028 RMK A01 T00150011  RH  097%=      5-min Rain = 0
KST2 080631Z 02012KT 02/01 A3028 RMK A01 T00150011  RH  097%=      5-min Rain = 0
KST2 080632Z 01013KT 02/01 A3028 RMK A01 T00150011  RH  097%=      5-min Rain = 0
KST2 080633Z 02012KT 02/01 A3028 RMK A01 T00150011  RH  097%=      5-min Rain = 0
KST2 080634Z 02013KT 02/01 A3028 RMK A01 T00150011  RH  097%=      5-min Rain = 0
KST2 080635Z 02012KT 01/01 A3028 RMK A01 T00140010  RH  097%=      5-min Rain = 0
KST2 080636Z 02009KT 01/01 A3028 RMK A01 T00140010  RH  097%=      5-min Rain = 0
KST2 080637Z 02012KT 02/01 A3028 RMK A01 T00150010  RH  097%=      5-min Rain = 0
KST2 080638Z 02013KT 02/01 A3028 RMK A01 T00150010  RH  097%=      5-min Rain = 0
KST2 080639Z 02013KT 01/01 A3028 RMK A01 T00140010  RH  097%=      5-min Rain = 0
KST2 080640Z 02012KT 01/01 A3028 RMK A01 T00140010  RH  097%=      5-min Rain = 0
KST2 080641Z 02011KT 01/01 A3028 RMK A01 T00140010  RH  097%=      5-min Rain = 0.01
KST2 080642Z 02011KT 01/01 A3028 RMK A01 T00140010  RH  097%=      5-min Rain = 0
KST2 080643Z 02011KT 01/01 A3028 RMK A01 T00140010  RH  097%=      5-min Rain = 0
KST2 080644Z 02011KT 01/01 A3028 RMK A01 T00140010  RH  097%=      5-min Rain = 0
KST2 080645Z 02012KT 01/01 A3028 RMK A01 T00140010  RH  097%=      5-min Rain = 0
KST2 080646Z 02009KT 02/01 A3028 RMK A01 T00150011  RH  097%=      5-min Rain = 0
KST2 080647Z 01009KT 02/01 A3028 RMK A01 T00150011  RH  097%=      5-min Rain = 0
KST2 080648Z 02008KT 02/01 A3028 RMK A01 T00150011  RH  097%=      5-min Rain = 0
KST2 080649Z 01010KT 02/01 A3028 RMK A01 T00150011  RH  097%=      5-min Rain = 0
KST2 080650Z 02011KT 02/01 A3028 RMK A01 T00150011  RH  097%=      5-min Rain = 0
KST2 080651Z 02009KT 02/01 A3028 RMK A01 T00150011  RH  097%=      5-min Rain = 0
KST2 080652Z 02010KT 02/01 A3028 RMK A01 T00150011  RH  097%=      5-min Rain = 0
KST2 080653Z 02009KT 01/01 A3028 RMK A01 T00140011  RH  098%=      5-min Rain = 0
KST2 080654Z 02008KT 01/01 A3028 RMK A01 T00140011  RH  098%=      5-min Rain = 0
KST2 080655Z 02009KT 01/01 A3028 RMK A01 T00140011  RH  098%=      5-min Rain = 0
KST2 080656Z 02008KT 01/01 A3028 RMK A01 T00140011  RH  098%=      5-min Rain = 0
KST2 080657Z 02009KT 01/01 A3028 RMK A01 T00140011  RH  098%=      5-min Rain = 0
KST2 080658Z 02009KT 01/01 A3028 RMK A01 T00140011  RH  098%=      5-min Rain = 0
KST2 080659Z 02010KT 01/01 A3028 RMK A01 T00140011  RH  098%=      5-min Rain = 0.01
KST2 080700Z 02009KT 01/01 A3028 RMK A01 T00140011  RH  098%=      5-min Rain = 0
KST2 080701Z 02009KT 01/01 A3028 RMK A01 T00140011  RH  098%=      5-min Rain = 0
KST2 080702Z 02011KT 01/01 A3028 RMK A01 T00140011  RH  098%=      5-min Rain = 0
KST2 080703Z 02012KT 02/01 A3028 RMK A01 T00150011  RH  098%=      5-min Rain = 0
KST2 080704Z 02010KT 01/01 A3028 RMK A01 T00140011  RH  098%=      5-min Rain = 0
KST2 080705Z 02010KT 01/01 A3028 RMK A01 T00140011  RH  098%=      5-min Rain = 0
KST2 080706Z 02009KT 02/01 A3028 RMK A01 T00150011  RH  098%=      5-min Rain = 0
KST2 080707Z 02009KT 02/01 A3028 RMK A01 T00150011  RH  098%=      5-min Rain = 0
KST2 080708Z 02010KT 02/01 A3028 RMK A01 T00150012  RH  098%=      5-min Rain = 0
KST2 080709Z 01011KT 02/01 A3028 RMK A01 T00150011  RH  098%=      5-min Rain = 0
KST2 080710Z 02010KT 02/01 A3028 RMK A01 T00150012  RH  098%=      5-min Rain = 0
KST2 080711Z 02008KT 02/01 A3028 RMK A01 T00150011  RH  098%=      5-min Rain = 0
KST2 080712Z 02007KT 02/01 A3028 RMK A01 T00150011  RH  098%=      5-min Rain = 0
KST2 080713Z 02007KT 02/01 A3028 RMK A01 T00150012  RH  098%=      5-min Rain = 0
KST2 080714Z 02007KT 02/01 A3028 RMK A01 T00150012  RH  098%=      5-min Rain = 0
KST2 080715Z 01008KT 02/01 A3028 RMK A01 T00150012  RH  098%=      5-min Rain = 0
KST2 080716Z 01008KT 02/01 A3028 RMK A01 T00150012  RH  098%=      5-min Rain = 0
KST2 080717Z 02006KT 02/01 A3028 RMK A01 T00150012  RH  098%=      5-min Rain = 0
KST2 080718Z 02008KT 02/01 A3028 RMK A01 T00150012  RH  098%=      5-min Rain = 0
KST2 080719Z 02010KT 02/01 A3029 RMK A01 T00150012  RH  098%=      5-min Rain = 0
KST2 080720Z 01010KT 02/01 A3029 RMK A01 T00150012  RH  098%=      5-min Rain = 0
KST2 080721Z 02009KT 02/01 A3029 RMK A01 T00150011  RH  098%=      5-min Rain = 0
KST2 080722Z 02009KT 02/01 A3029 RMK A01 T00150011  RH  098%=      5-min Rain = 0
KST2 080723Z 02011KT 02/01 A3029 RMK A01 T00150012  RH  098%=      5-min Rain = 0
KST2 080724Z 02010KT 02/01 A3029 RMK A01 T00150011  RH  098%=      5-min Rain = 0
KST2 080725Z 02009KT 01/01 A3029 RMK A01 T00140011  RH  097%=      5-min Rain = 0.01
KST2 080726Z 01009KT 01/01 A3029 RMK A01 T00140011  RH  097%=      5-min Rain = 0
KST2 080727Z 01011KT 02/01 A3029 RMK A01 T00150011  RH  097%=      5-min Rain = 0
KST2 080728Z 01009KT 02/01 A3029 RMK A01 T00150011  RH  097%=      5-min Rain = 0
KST2 080729Z 01010KT 01/01 A3029 RMK A01 T00140011  RH  097%=      5-min Rain = 0
KST2 080730Z 01011KT 01/01 A3029 RMK A01 T00140011  RH  097%=      5-min Rain = 0
KST2 080731Z 01011KT 01/01 A3029 RMK A01 T00140010  RH  097%=      5-min Rain = 0
KST2 080732Z 01012KT 01/01 A3029 RMK A01 T00140010  RH  097%=      5-min Rain = 0
KST2 080733Z 02010KT 01/01 A3029 RMK A01 T00140010  RH  097%=      5-min Rain = 0
KST2 080734Z 02011KT 01/01 A3028 RMK A01 T00140010  RH  097%=      5-min Rain = 0
KST2 080735Z 01011KT 01/01 A3028 RMK A01 T00140010  RH  097%=      5-min Rain = 0
KST2 080736Z 02010KT 01/01 A3028 RMK A01 T00140010  RH  097%=      5-min Rain = 0
KST2 080737Z 01010KT 01/01 A3028 RMK A01 T00140010  RH  097%=      5-min Rain = 0
KST2 080738Z 01010KT 01/01 A3028 RMK A01 T00140010  RH  097%=      5-min Rain = 0
KST2 080739Z 01010KT 01/01 A3028 RMK A01 T00140010  RH  097%=      5-min Rain = 0
KST2 080740Z 01009KT 01/01 A3028 RMK A01 T00140010  RH  097%=      5-min Rain = 0
KST2 080741Z 01009KT 01/01 A3029 RMK A01 T00140010  RH  097%=      5-min Rain = 0.01
KST2 080742Z 01010KT 01/01 A3029 RMK A01 T00140010  RH  097%=      5-min Rain = 0
KST2 080743Z 01010KT 01/01 A3029 RMK A01 T00140010  RH  097%=      5-min Rain = 0
KST2 080744Z 01011KT 01/01 A3028 RMK A01 T00140010  RH  098%=      5-min Rain = 0
KST2 080745Z 01009KT 01/01 A3028 RMK A01 T00140011  RH  098%=      5-min Rain = 0
KST2 080746Z 01009KT 01/01 A3028 RMK A01 T00140011  RH  098%=      5-min Rain = 0
KST2 080747Z 01011KT 01/01 A3028 RMK A01 T00140011  RH  098%=      5-min Rain = 0.01
KST2 080748Z 01010KT 01/01 A3028 RMK A01 T00140010  RH  098%=      5-min Rain = 0
KST2 080749Z 01012KT 01/01 A3028 RMK A01 T00140011  RH  098%=      5-min Rain = 0
KST2 080750Z 01011KT 01/01 A3028 RMK A01 T00140010  RH  098%=      5-min Rain = 0
KST2 080751Z 02011KT 01/01 A3028 RMK A01 T00140011  RH  098%=      5-min Rain = 0
KST2 080752Z 02009KT 01/01 A3028 RMK A01 T00140011  RH  098%=      5-min Rain = 0.01
KST2 080753Z 02009KT 01/01 A3028 RMK A01 T00140011  RH  098%=      5-min Rain = 0
KST2 080754Z 01009KT 01/01 A3028 RMK A01 T00140011  RH  098%=      5-min Rain = 0
KST2 080755Z 01009KT 01/01 A3028 RMK A01 T00140011  RH  098%=      5-min Rain = 0.01
KST2 080756Z 01010KT 01/01 A3028 RMK A01 T00140011  RH  098%=      5-min Rain = 0
KST2 080757Z 01008KT 01/01 A3028 RMK A01 T00140011  RH  098%=      5-min Rain = 0
KST2 080758Z 01009KT 01/01 A3028 RMK A01 T00140011  RH  098%=      5-min Rain = 0
KST2 080759Z 01008KT 01/01 A3028 RMK A01 T00140011  RH  098%=      5-min Rain = 0
KST2 080800Z 01009KT 01/01 A3028 RMK A01 T00140011  RH  098%=      5-min Rain = 0.01
KST2 080801Z 01008KT 01/01 A3028 RMK A01 T00140011  RH  098%=      5-min Rain = 0
KST2 080802Z 01008KT 01/01 A3028 RMK A01 T00140011  RH  098%=      5-min Rain = 0
KST2 080803Z 01009KT 01/01 A3028 RMK A01 T00140011  RH  098%=      5-min Rain = 0
KST2 080804Z 01010KT 01/01 A3028 RMK A01 T00140011  RH  098%=      5-min Rain = 0
KST2 080805Z 36009KT 01/01 A3028 RMK A01 T00140011  RH  098%=      5-min Rain = 0.01
KST2 080806Z 36011KT 01/01 A3028 RMK A01 T00140011  RH  098%=      5-min Rain = 0
KST2 080807Z 35011KT 01/01 A3028 RMK A01 T00140011  RH  098%=      5-min Rain = 0
KST2 080808Z 36012KT 01/01 A3028 RMK A01 T00130011  RH  098%=      5-min Rain = 0
KST2 080809Z 36011KT 01/01 A3028 RMK A01 T00130010  RH  098%=      5-min Rain = 0.01
KST2 080810Z 36011KT 01/01 A3028 RMK A01 T00130010  RH  098%=      5-min Rain = 0
KST2 080811Z 00010KT 01/01 A3028 RMK A01 T00130010  RH  098%=      5-min Rain = 0
KST2 080812Z 00013KT 01/01 A3028 RMK A01 T00130010  RH  098%=      5-min Rain = 0
KST2 080813Z 01011KT 01/01 A3028 RMK A01 T00130010  RH  098%=      5-min Rain = 0.01
KST2 080814Z 01012KT 01/01 A3028 RMK A01 T00130010  RH  098%=      5-min Rain = 0
KST2 080815Z 01011KT 01/01 A3028 RMK A01 T00130010  RH  098%=      5-min Rain = 0
KST2 080816Z 01012KT 01/01 A3028 RMK A01 T00130010  RH  098%=      5-min Rain = 0
KST2 080817Z 01010KT 01/01 A3028 RMK A01 T00130010  RH  098%=      5-min Rain = 0.01
KST2 080818Z 01010KT 01/01 A3028 RMK A01 T00130010  RH  098%=      5-min Rain = 0
KST2 080819Z 00013KT 01/01 A3028 RMK A01 T00130010  RH  098%=      5-min Rain = 0
KST2 080820Z 00011KT 01/01 A3028 RMK A01 T00120010  RH  098%=      5-min Rain = 0
KST2 080821Z 01011KT 01/01 A3028 RMK A01 T00130010  RH  098%=      5-min Rain = 0
KST2 080822Z 00011KT 01/01 A3028 RMK A01 T00130010  RH  098%=      5-min Rain = 0
KST2 080823Z 01012KT 01/01 A3028 RMK A01 T00130010  RH  098%=      5-min Rain = 0
KST2 080824Z 00011KT 01/01 A3028 RMK A01 T00130010  RH  098%=      5-min Rain = 0.01
KST2 080825Z 00011KT 01/01 A3028 RMK A01 T00130010  RH  098%=      5-min Rain = 0
KST2 080826Z 01012KT 01/01 A3028 RMK A01 T00130010  RH  098%=      5-min Rain = 0
KST2 080827Z 01012KT 01/01 A3028 RMK A01 T00130010  RH  098%=      5-min Rain = 0
KST2 080828Z 01012KT 01/01 A3028 RMK A01 T00130010  RH  098%=      5-min Rain = 0
KST2 080829Z 01009KT 01/01 A3027 RMK A01 T00130010  RH  098%=      5-min Rain = 0
KST2 080830Z 01011KT 01/01 A3027 RMK A01 T00130010  RH  098%=      5-min Rain = 0
KST2 080831Z 01011KT 01/01 A3027 RMK A01 T00120010  RH  098%=      5-min Rain = 0
KST2 080832Z 01013KT 01/01 A3027 RMK A01 T00120010  RH  098%=      5-min Rain = 0
KST2 080833Z 01014KT 01/01 A3027 RMK A01 T00130010  RH  098%=      5-min Rain = 0
KST2 080834Z 01013KT 01/01 A3027 RMK A01 T00120009  RH  098%=      5-min Rain = 0
KST2 080835Z 01012KT 01/01 A3027 RMK A01 T00130009  RH  098%=      5-min Rain = 0
KST2 080836Z 01011KT 01/01 A3027 RMK A01 T00130009  RH  098%=      5-min Rain = 0
KST2 080837Z 01013KT 01/01 A3027 RMK A01 T00120009  RH  098%=      5-min Rain = 0
KST2 080838Z 01011KT 01/01 A3027 RMK A01 T00130009  RH  098%=      5-min Rain = 0
KST2 080839Z 01010KT 01/01 A3027 RMK A01 T00130009  RH  098%=      5-min Rain = 0.01
KST2 080840Z 01011KT 01/01 A3027 RMK A01 T00130009  RH  098%=      5-min Rain = 0
KST2 080841Z 02012KT 01/01 A3027 RMK A01 T00130009  RH  098%=      5-min Rain = 0
KST2 080842Z 02012KT 01/01 A3027 RMK A01 T00130009  RH  098%=      5-min Rain = 0
KST2 080843Z 01013KT 01/01 A3027 RMK A01 T00130009  RH  098%=      5-min Rain = 0
KST2 080844Z 02010KT 01/01 A3027 RMK A01 T00120009  RH  098%=      5-min Rain = 0
KST2 080845Z 02008KT 01/01 A3027 RMK A01 T00120009  RH  098%=      5-min Rain = 0
KST2 080846Z 01010KT 01/01 A3027 RMK A01 T00130010  RH  098%=      5-min Rain = 0
KST2 080847Z 02011KT 01/01 A3027 RMK A01 T00130010  RH  098%=      5-min Rain = 0
KST2 080848Z 01012KT 01/01 A3027 RMK A01 T00130010  RH  098%=      5-min Rain = 0
KST2 080849Z 01010KT 01/01 A3027 RMK A01 T00130010  RH  098%=      5-min Rain = 0
KST2 080850Z 01010KT 01/01 A3027 RMK A01 T00130010  RH  098%=      5-min Rain = 0
KST2 080851Z 01011KT 01/01 A3027 RMK A01 T00130010  RH  098%=      5-min Rain = 0.01
KST2 080852Z 00011KT 01/01 A3027 RMK A01 T00130010  RH  098%=      5-min Rain = 0
KST2 080853Z 01013KT 01/01 A3027 RMK A01 T00130010  RH  098%=      5-min Rain = 0
KST2 080854Z 01014KT 01/01 A3027 RMK A01 T00130010  RH  098%=      5-min Rain = 0
KST2 080855Z 01012KT 01/01 A3027 RMK A01 T00130010  RH  098%=      5-min Rain = 0
KST2 080856Z 01012KT 01/01 A3027 RMK A01 T00130010  RH  098%=      5-min Rain = 0
KST2 080857Z 01014KT 01/01 A3026 RMK A01 T00130010  RH  098%=      5-min Rain = 0
KST2 080858Z 01014KT 01/01 A3026 RMK A01 T00130010  RH  098%=      5-min Rain = 0
KST2 080859Z 00013KT 01/01 A3026 RMK A01 T00130009  RH  098%=      5-min Rain = 0
KST2 080900Z 01013KT 01/01 A3026 RMK A01 T00120009  RH  098%=      5-min Rain = 0
KST2 080901Z 01009KT 01/01 A3026 RMK A01 T00130009  RH  098%=      5-min Rain = 0
KST2 080902Z 01010KT 01/01 A3026 RMK A01 T00130010  RH  098%=      5-min Rain = 0
KST2 080903Z 01010KT 01/01 A3026 RMK A01 T00130010  RH  098%=      5-min Rain = 0
KST2 080904Z 01009KT 01/01 A3026 RMK A01 T00130010  RH  098%=      5-min Rain = 0
KST2 080905Z 01010KT 01/01 A3026 RMK A01 T00130010  RH  098%=      5-min Rain = 0
KST2 080906Z 00010KT 01/01 A3026 RMK A01 T00130010  RH  098%=      5-min Rain = 0
KST2 080907Z 01010KT 01/01 A3027 RMK A01 T00130010  RH  098%=      5-min Rain = 0.01
KST2 080908Z 00010KT 01/01 A3026 RMK A01 T00130010  RH  098%=      5-min Rain = 0
KST2 080909Z 00010KT 01/01 A3026 RMK A01 T00130010  RH  098%=      5-min Rain = 0
KST2 080910Z 01011KT 01/01 A3026 RMK A01 T00130010  RH  098%=      5-min Rain = 0
KST2 080911Z 01012KT 01/01 A3026 RMK A01 T00130010  RH  098%=      5-min Rain = 0
KST2 080912Z 01011KT 01/01 A3026 RMK A01 T00130010  RH  098%=      5-min Rain = 0
KST2 080913Z 01012KT 01/01 A3026 RMK A01 T00130009  RH  098%=      5-min Rain = 0
KST2 080914Z 02010KT 01/01 A3026 RMK A01 T00130009  RH  098%=      5-min Rain = 0
KST2 080915Z 01011KT 01/01 A3026 RMK A01 T00130009  RH  098%=      5-min Rain = 0
KST2 080916Z 00013KT 01/01 A3026 RMK A01 T00120009  RH  098%=      5-min Rain = 0
KST2 080917Z 01015KT 01/01 A3026 RMK A01 T00130009  RH  098%=      5-min Rain = 0
KST2 080918Z 01013KT 01/01 A3026 RMK A01 T00120009  RH  097%=      5-min Rain = 0
KST2 080919Z 01014KT 01/01 A3026 RMK A01 T00120008  RH  097%=      5-min Rain = 0
KST2 080920Z 01014KT 01/01 A3026 RMK A01 T00120008  RH  097%=      5-min Rain = 0
KST2 080921Z 01013KT 01/01 A3026 RMK A01 T00120008  RH  097%=      5-min Rain = 0
KST2 080922Z 01012KT 01/01 A3026 RMK A01 T00120008  RH  097%=      5-min Rain = 0
KST2 080923Z 01013KT 01/01 A3026 RMK A01 T00120008  RH  097%=      5-min Rain = 0
KST2 080924Z 01012KT 01/01 A3026 RMK A01 T00120008  RH  097%=      5-min Rain = 0
KST2 080925Z 01012KT 01/01 A3026 RMK A01 T00120008  RH  097%=      5-min Rain = 0
KST2 080926Z 01010KT 01/01 A3025 RMK A01 T00120008  RH  097%=      5-min Rain = 0
KST2 080927Z 01013KT 01/01 A3025 RMK A01 T00120008  RH  097%=      5-min Rain = 0
KST2 080928Z 02013KT 01/01 A3025 RMK A01 T00120008  RH  097%=      5-min Rain = 0
KST2 080929Z 01012KT 01/01 A3025 RMK A01 T00120008  RH  097%=      5-min Rain = 0
KST2 080930Z 01013KT 01/01 A3025 RMK A01 T00120008  RH  097%=      5-min Rain = 0
KST2 080931Z 01013KT 01/01 A3025 RMK A01 T00120008  RH  097%=      5-min Rain = 0
KST2 080932Z 01014KT 01/01 A3025 RMK A01 T00120008  RH  097%=      5-min Rain = 0
KST2 080933Z 01012KT 01/01 A3025 RMK A01 T00110007  RH  097%=      5-min Rain = 0
KST2 080934Z 01012KT 01/01 A3025 RMK A01 T00110007  RH  097%=      5-min Rain = 0
KST2 080935Z 02011KT 01/01 A3025 RMK A01 T00120007  RH  097%=      5-min Rain = 0
KST2 080936Z 01011KT 01/01 A3025 RMK A01 T00120008  RH  097%=      5-min Rain = 0
KST2 080937Z 01011KT 01/01 A3025 RMK A01 T00120008  RH  097%=      5-min Rain = 0
KST2 080938Z 01011KT 01/01 A3025 RMK A01 T00120008  RH  097%=      5-min Rain = 0
KST2 080939Z 01012KT 01/01 A3025 RMK A01 T00120008  RH  097%=      5-min Rain = 0
KST2 080940Z 01010KT 01/01 A3025 RMK A01 T00120008  RH  097%=      5-min Rain = 0
KST2 080941Z 01010KT 01/01 A3025 RMK A01 T00120008  RH  097%=      5-min Rain = 0
KST2 080942Z 01014KT 01/01 A3025 RMK A01 T00120008  RH  097%=      5-min Rain = 0
KST2 080943Z 02014KT 01/01 A3025 RMK A01 T00120008  RH  097%=      5-min Rain = 0
KST2 080944Z 01014KT 01/01 A3025 RMK A01 T00120007  RH  097%=      5-min Rain = 0
KST2 080945Z 01014KT 01/01 A3025 RMK A01 T00110007  RH  097%=      5-min Rain = 0
KST2 080946Z 01014KT 01/01 A3025 RMK A01 T00120007  RH  097%=      5-min Rain = 0
KST2 080947Z 01014KT 01/01 A3025 RMK A01 T00120007  RH  097%=      5-min Rain = 0
KST2 080948Z 01014KT 01/01 A3025 RMK A01 T00120007  RH  097%=      5-min Rain = 0
KST2 080949Z 01015KT 01/01 A3025 RMK A01 T00110007  RH  097%=      5-min Rain = 0
KST2 080950Z 02015KT 01/01 A3025 RMK A01 T00120007  RH  097%=      5-min Rain = 0
KST2 080951Z 01014KT 01/01 A3025 RMK A01 T00120007  RH  097%=      5-min Rain = 0
KST2 080952Z 02014KT 01/01 A3025 RMK A01 T00120007  RH  097%=      5-min Rain = 0
KST2 080953Z 01013KT 01/01 A3025 RMK A01 T00110007  RH  097%=      5-min Rain = 0
KST2 080954Z 02012KT 01/01 A3025 RMK A01 T00120007  RH  097%=      5-min Rain = 0
KST2 080955Z 01013KT 01/01 A3025 RMK A01 T00110007  RH  097%=      5-min Rain = 0
KST2 080956Z 01014KT 01/01 A3025 RMK A01 T00120007  RH  097%=      5-min Rain = 0
KST2 080957Z 01011KT 01/01 A3025 RMK A01 T00120007  RH  097%=      5-min Rain = 0
KST2 080958Z 01011KT 01/01 A3025 RMK A01 T00120007  RH  097%=      5-min Rain = 0
KST2 080959Z 01010KT 01/01 A3025 RMK A01 T00120007  RH  097%=      5-min Rain = 0
KST2 081000Z 01012KT 01/01 A3025 RMK A01 T00120008  RH  097%=      5-min Rain = 0
KST2 081001Z 01011KT 01/01 A3025 RMK A01 T00120008  RH  097%=      5-min Rain = 0
KST2 081002Z 01009KT 01/01 A3025 RMK A01 T00120008  RH  097%=      5-min Rain = 0
KST2 081003Z 01011KT 01/01 A3025 RMK A01 T00130008  RH  097%=      5-min Rain = 0
KST2 081004Z 00011KT 01/01 A3025 RMK A01 T00130008  RH  097%=      5-min Rain = 0
KST2 081005Z 01013KT 01/01 A3025 RMK A01 T00120008  RH  097%=      5-min Rain = 0
KST2 081006Z 01013KT 01/01 A3025 RMK A01 T00120008  RH  097%=      5-min Rain = 0
KST2 081007Z 01012KT 01/01 A3025 RMK A01 T00120008  RH  097%=      5-min Rain = 0
KST2 081008Z 01013KT 01/01 A3025 RMK A01 T00120008  RH  097%=      5-min Rain = 0
KST2 081009Z 01012KT 01/01 A3025 RMK A01 T00120008  RH  097%=      5-min Rain = 0
KST2 081010Z 01012KT 01/01 A3025 RMK A01 T00120007  RH  097%=      5-min Rain = 0
KST2 081011Z 01011KT 01/01 A3025 RMK A01 T00110007  RH  097%=      5-min Rain = 0
KST2 081012Z 00010KT 01/01 A3025 RMK A01 T00120007  RH  097%=      5-min Rain = 0
KST2 081013Z 01012KT 01/01 A3025 RMK A01 T00120008  RH  097%=      5-min Rain = 0
KST2 081014Z 01012KT 01/01 A3025 RMK A01 T00120008  RH  097%=      5-min Rain = 0
KST2 081015Z 01012KT 01/01 A3025 RMK A01 T00120007  RH  097%=      5-min Rain = 0
KST2 081016Z 01011KT 01/01 A3025 RMK A01 T00110007  RH  097%=      5-min Rain = 0
KST2 081017Z 00010KT 01/01 A3025 RMK A01 T00110007  RH  097%=      5-min Rain = 0
KST2 081018Z 01012KT 01/01 A3024 RMK A01 T00110007  RH  097%=      5-min Rain = 0
KST2 081019Z 00010KT 01/01 A3024 RMK A01 T00110007  RH  097%=      5-min Rain = 0
KST2 081020Z 01013KT 01/01 A3025 RMK A01 T00110007  RH  097%=      5-min Rain = 0
KST2 081021Z 01013KT 01/01 A3025 RMK A01 T00110007  RH  097%=      5-min Rain = 0.01
KST2 081022Z 00012KT 01/01 A3025 RMK A01 T00110007  RH  097%=      5-min Rain = 0
KST2 081023Z 01015KT 01/01 A3025 RMK A01 T00110006  RH  097%=      5-min Rain = 0
KST2 081024Z 01012KT 01/01 A3025 RMK A01 T00110006  RH  097%=      5-min Rain = 0
KST2 081025Z 00013KT 01/01 A3025 RMK A01 T00110006  RH  097%=      5-min Rain = 0
KST2 081026Z 01013KT 01/01 A3025 RMK A01 T00110006  RH  097%=      5-min Rain = 0
KST2 081027Z 01013KT 01/01 A3025 RMK A01 T00110006  RH  097%=      5-min Rain = 0
KST2 081028Z 01013KT 01/01 A3025 RMK A01 T00110006  RH  097%=      5-min Rain = 0
KST2 081029Z 01011KT 01/01 A3025 RMK A01 T00110006  RH  097%=      5-min Rain = 0
KST2 081030Z 01012KT 01/01 A3025 RMK A01 T00110006  RH  097%=      5-min Rain = 0
KST2 081031Z 01014KT 01/01 A3025 RMK A01 T00110006  RH  097%=      5-min Rain = 0
KST2 081032Z 01013KT 01/01 A3025 RMK A01 T00110006  RH  097%=      5-min Rain = 0
KST2 081033Z 01014KT 01/01 A3025 RMK A01 T00110006  RH  097%=      5-min Rain = 0
KST2 081034Z 01013KT 01/01 A3025 RMK A01 T00110006  RH  097%=      5-min Rain = 0
KST2 081035Z 01011KT 01/01 A3025 RMK A01 T00110006  RH  097%=      5-min Rain = 0
KST2 081036Z 01010KT 01/01 A3025 RMK A01 T00110006  RH  097%=      5-min Rain = 0.01
KST2 081037Z 01010KT 01/01 A3025 RMK A01 T00110006  RH  097%=      5-min Rain = 0
KST2 081038Z 00011KT 01/01 A3025 RMK A01 T00110007  RH  097%=      5-min Rain = 0
KST2 081039Z 01012KT 01/01 A3025 RMK A01 T00110007  RH  097%=      5-min Rain = 0
KST2 081040Z 01013KT 01/01 A3025 RMK A01 T00110007  RH  097%=      5-min Rain = 0
KST2 081041Z 01014KT 01/01 A3025 RMK A01 T00110007  RH  097%=      5-min Rain = 0
KST2 081042Z 01015KT 01/01 A3025 RMK A01 T00110007  RH  097%=      5-min Rain = 0
KST2 081043Z 01015KT 01/01 A3025 RMK A01 T00110006  RH  097%=      5-min Rain = 0
KST2 081044Z 01012G17KT 01/01 A3025 RMK A01 T00110006  RH  097%=      5-min Rain = 0
KST2 081045Z 01010KT 01/01 A3025 RMK A01 T00110006  RH  097%=      5-min Rain = 0
KST2 081046Z 01012KT 01/01 A3025 RMK A01 T00110006  RH  097%=      5-min Rain = 0
KST2 081047Z 01014KT 01/01 A3025 RMK A01 T00110006  RH  097%=      5-min Rain = 0
KST2 081048Z 01012KT 01/01 A3025 RMK A01 T00110006  RH  097%=      5-min Rain = 0
KST2 081049Z 02012KT 01/01 A3025 RMK A01 T00110006  RH  097%=      5-min Rain = 0
KST2 081050Z 02012KT 01/01 A3025 RMK A01 T00110006  RH  097%=      5-min Rain = 0
KST2 081051Z 01012KT 01/01 A3025 RMK A01 T00110006  RH  097%=      5-min Rain = 0
KST2 081052Z 01013KT 01/01 A3025 RMK A01 T00110006  RH  097%=      5-min Rain = 0
KST2 081053Z 01012KT 01/01 A3025 RMK A01 T00110006  RH  097%=      5-min Rain = 0.01
KST2 081054Z 01012KT 01/01 A3025 RMK A01 T00110006  RH  097%=      5-min Rain = 0
KST2 081055Z 01011KT 01/01 A3025 RMK A01 T00110006  RH  097%=      5-min Rain = 0
KST2 081056Z 01011KT 01/01 A3025 RMK A01 T00110006  RH  097%=      5-min Rain = 0
KST2 081057Z 02013KT 01/01 A3025 RMK A01 T00110006  RH  097%=      5-min Rain = 0
KST2 081058Z 02013KT 01/01 A3025 RMK A01 T00100006  RH  097%=      5-min Rain = 0
KST2 081059Z 01012KT 01/01 A3025 RMK A01 T00110006  RH  097%=      5-min Rain = 0
KST2 081100Z 02014KT 01/01 A3025 RMK A01 T00110006  RH  097%=      5-min Rain = 0
KST2 081101Z 01014KT 01/01 A3025 RMK A01 T00110006  RH  097%=      5-min Rain = 0
KST2 081102Z 01011KT 01/01 A3025 RMK A01 T00110006  RH  097%=      5-min Rain = 0
KST2 081103Z 01011KT 01/01 A3025 RMK A01 T00110007  RH  097%=      5-min Rain = 0
KST2 081104Z 01010KT 01/01 A3025 RMK A01 T00110007  RH  097%=      5-min Rain = 0
KST2 081105Z 01012KT 01/01 A3025 RMK A01 T00110007  RH  097%=      5-min Rain = 0
KST2 081106Z 01012KT 01/01 A3025 RMK A01 T00110007  RH  097%=      5-min Rain = 0
KST2 081107Z 01011KT 01/01 A3025 RMK A01 T00110007  RH  097%=      5-min Rain = 0
KST2 081108Z 01013KT 01/01 A3025 RMK A01 T00110007  RH  097%=      5-min Rain = 0.01
KST2 081109Z 01012KT 01/01 A3025 RMK A01 T00110007  RH  097%=      5-min Rain = 0
KST2 081110Z 02012KT 01/01 A3025 RMK A01 T00110007  RH  097%=      5-min Rain = 0
KST2 081111Z 01010KT 01/01 A3025 RMK A01 T00110007  RH  097%=      5-min Rain = 0
KST2 081112Z 01013KT 01/01 A3025 RMK A01 T00110007  RH  097%=      5-min Rain = 0
KST2 081113Z 01012KT 01/01 A3025 RMK A01 T00110007  RH  097%=      5-min Rain = 0
KST2 081114Z 01012KT 01/01 A3025 RMK A01 T00110007  RH  097%=      5-min Rain = 0
KST2 081115Z 01013KT 01/01 A3025 RMK A01 T00110007  RH  097%=      5-min Rain = 0
KST2 081116Z 01011KT 01/01 A3025 RMK A01 T00110006  RH  097%=      5-min Rain = 0
KST2 081117Z 01010KT 01/01 A3025 RMK A01 T00110007  RH  097%=      5-min Rain = 0
KST2 081118Z 01013KT 01/01 A3025 RMK A01 T00120007  RH  097%=      5-min Rain = 0
KST2 081119Z 02013KT 01/01 A3025 RMK A01 T00120007  RH  097%=      5-min Rain = 0
KST2 081120Z 01011KT 01/01 A3025 RMK A01 T00120007  RH  097%=      5-min Rain = 0
KST2 081121Z 02010KT 01/01 A3025 RMK A01 T00120007  RH  097%=      5-min Rain = 0
KST2 081122Z 01012KT 01/01 A3025 RMK A01 T00120007  RH  097%=      5-min Rain = 0
KST2 081123Z 01014KT 01/01 A3025 RMK A01 T00120007  RH  097%=      5-min Rain = 0
KST2 081124Z 01014KT 01/01 A3025 RMK A01 T00120007  RH  097%=      5-min Rain = 0.01
KST2 081125Z 01013KT 01/01 A3025 RMK A01 T00120007  RH  097%=      5-min Rain = 0
KST2 081126Z 01011KT 01/01 A3025 RMK A01 T00110006  RH  097%=      5-min Rain = 0
KST2 081127Z 01014KT 01/01 A3025 RMK A01 T00120007  RH  097%=      5-min Rain = 0
KST2 081128Z 01010KT 01/01 A3025 RMK A01 T00110007  RH  097%=      5-min Rain = 0
KST2 081129Z 01010KT 01/01 A3025 RMK A01 T00120007  RH  097%=      5-min Rain = 0
KST2 081130Z 01011KT 01/01 A3026 RMK A01 T00120007  RH  097%=      5-min Rain = 0
KST2 081131Z 01009KT 01/01 A3026 RMK A01 T00120008  RH  097%=      5-min Rain = 0
KST2 081132Z 01010G15KT 01/01 A3026 RMK A01 T00120007  RH  097%=      5-min Rain = 0
KST2 081133Z 01012KT 01/01 A3026 RMK A01 T00120008  RH  097%=      5-min Rain = 0
KST2 081134Z 00013KT 01/01 A3026 RMK A01 T00120007  RH  097%=      5-min Rain = 0
KST2 081135Z 00012KT 01/01 A3026 RMK A01 T00120007  RH  097%=      5-min Rain = 0
KST2 081136Z 00011KT 01/01 A3026 RMK A01 T00120007  RH  097%=      5-min Rain = 0.01
KST2 081137Z 01013KT 01/01 A3026 RMK A01 T00120007  RH  097%=      5-min Rain = 0
KST2 081138Z 01012KT 01/01 A3026 RMK A01 T00110007  RH  097%=      5-min Rain = 0
KST2 081139Z 01012KT 01/01 A3026 RMK A01 T00120008  RH  097%=      5-min Rain = 0
KST2 081140Z 01011KT 01/01 A3026 RMK A01 T00120007  RH  097%=      5-min Rain = 0
KST2 081141Z 01013KT 01/01 A3026 RMK A01 T00120007  RH  097%=      5-min Rain = 0
KST2 081142Z 01013KT 01/01 A3026 RMK A01 T00120007  RH  097%=      5-min Rain = 0
KST2 081143Z 01012KT 01/01 A3026 RMK A01 T00120007  RH  097%=      5-min Rain = 0
KST2 081144Z 02012KT 01/01 A3026 RMK A01 T00110007  RH  097%=      5-min Rain = 0
KST2 081145Z 02013KT 01/01 A3026 RMK A01 T00120007  RH  097%=      5-min Rain = 0
KST2 081146Z 02013KT 01/01 A3026 RMK A01 T00120007  RH  097%=      5-min Rain = 0
KST2 081147Z 02011KT 01/01 A3026 RMK A01 T00120007  RH  097%=      5-min Rain = 0
KST2 081148Z 02012KT 01/01 A3026 RMK A01 T00110007  RH  097%=      5-min Rain = 0
KST2 081149Z 01012KT 01/01 A3026 RMK A01 T00120007  RH  097%=      5-min Rain = 0
KST2 081150Z 02011KT 01/01 A3026 RMK A01 T00120007  RH  097%=      5-min Rain = 0
KST2 081151Z 01012KT 01/01 A3026 RMK A01 T00110007  RH  097%=      5-min Rain = 0
KST2 081152Z 01011KT 01/01 A3026 RMK A01 T00120007  RH  097%=      5-min Rain = 0
KST2 081153Z 02010KT 01/01 A3026 RMK A01 T00120007  RH  097%=      5-min Rain = 0
KST2 081154Z 01009KT 01/01 A3026 RMK A01 T00120008  RH  097%=      5-min Rain = 0
KST2 081155Z 01009KT 01/01 A3026 RMK A01 T00120008  RH  097%=      5-min Rain = 0
KST2 081156Z 01009KT 01/01 A3026 RMK A01 T00120008  RH  097%=      5-min Rain = 0
KST2 081157Z 01010KT 01/01 A3026 RMK A01 T00120008  RH  097%=      5-min Rain = 0
KST2 081158Z 01012KT 01/01 A3026 RMK A01 T00120008  RH  097%=      5-min Rain = 0.01
KST2 081159Z 01011KT 01/01 A3026 RMK A01 T00120008  RH  097%=      5-min Rain = 0
KST2 081200Z 01011KT 01/01 A3026 RMK A01 T00120008  RH  097%=      5-min Rain = 0
KST2 081201Z 00011KT 01/01 A3026 RMK A01 T00120008  RH  097%=      5-min Rain = 0
KST2 081202Z 36011KT 01/01 A3026 RMK A01 T00120008  RH  097%=      5-min Rain = 0
KST2 081203Z 00011KT 01/01 A3026 RMK A01 T00120008  RH  097%=      5-min Rain = 0
KST2 081204Z 36011KT 01/01 A3027 RMK A01 T00120008  RH  097%=      5-min Rain = 0
KST2 081205Z 01011KT 01/01 A3027 RMK A01 T00120008  RH  097%=      5-min Rain = 0
KST2 081206Z 00011KT 01/01 A3027 RMK A01 T00110007  RH  097%=      5-min Rain = 0
KST2 081207Z 01010KT 01/01 A3027 RMK A01 T00110008  RH  097%=      5-min Rain = 0
KST2 081208Z 01012KT 01/01 A3027 RMK A01 T00110007  RH  097%=      5-min Rain = 0
KST2 081209Z 00013KT 01/01 A3027 RMK A01 T00110007  RH  097%=      5-min Rain = 0
KST2 081210Z 01013KT 01/01 A3027 RMK A01 T00110007  RH  097%=      5-min Rain = 0
KST2 081211Z 01012KT 01/01 A3027 RMK A01 T00110007  RH  097%=      5-min Rain = 0
KST2 081212Z 01012KT 01/01 A3027 RMK A01 T00110007  RH  097%=      5-min Rain = 0
KST2 081213Z 01013KT 01/01 A3027 RMK A01 T00110006  RH  097%=      5-min Rain = 0
KST2 081214Z 00012KT 01/01 A3027 RMK A01 T00110006  RH  097%=      5-min Rain = 0
KST2 081215Z 01013KT 01/01 A3027 RMK A01 T00110006  RH  097%=      5-min Rain = 0
KST2 081216Z 01012KT 01/01 A3027 RMK A01 T00110006  RH  097%=      5-min Rain = 0.01
KST2 081217Z 01012KT 01/01 A3027 RMK A01 T00110006  RH  097%=      5-min Rain = 0
KST2 081218Z 00013KT 01/01 A3027 RMK A01 T00110006  RH  097%=      5-min Rain = 0
KST2 081219Z 36012KT 01/01 A3027 RMK A01 T00110006  RH  097%=      5-min Rain = 0
KST2 081220Z 36011KT 01/01 A3027 RMK A01 T00110006  RH  097%=      5-min Rain = 0
KST2 081221Z 36010KT 01/01 A3027 RMK A01 T00110006  RH  097%=      5-min Rain = 0
KST2 081222Z 35009KT 01/01 A3027 RMK A01 T00110007  RH  097%=      5-min Rain = 0
KST2 081223Z 35009KT 01/01 A3027 RMK A01 T00110007  RH  097%=      5-min Rain = 0
KST2 081224Z 35012KT 01/01 A3027 RMK A01 T00110007  RH  097%=      5-min Rain = 0
KST2 081225Z 36011KT 01/01 A3027 RMK A01 T00100006  RH  097%=      5-min Rain = 0
KST2 081226Z 36011KT 01/01 A3027 RMK A01 T00100006  RH  097%=      5-min Rain = 0
KST2 081227Z 00010KT 01/01 A3027 RMK A01 T00100006  RH  097%=      5-min Rain = 0.01
KST2 081228Z 00010KT 01/01 A3027 RMK A01 T00100006  RH  098%=      5-min Rain = 0
KST2 081229Z 01010KT 01/01 A3027 RMK A01 T00100006  RH  098%=      5-min Rain = 0
KST2 081230Z 01009KT 01/01 A3027 RMK A01 T00100006  RH  098%=      5-min Rain = 0
KST2 081231Z 01009KT 01/01 A3027 RMK A01 T00100006  RH  098%=      5-min Rain = 0
KST2 081232Z 01013KT 01/01 A3027 RMK A01 T00100007  RH  098%=      5-min Rain = 0
KST2 081233Z 00011KT 01/01 A3027 RMK A01 T00100006  RH  098%=      5-min Rain = 0
KST2 081234Z 00010KT 01/01 A3027 RMK A01 T00100006  RH  098%=      5-min Rain = 0
KST2 081235Z 01009KT 01/01 A3027 RMK A01 T00100006  RH  098%=      5-min Rain = 0
KST2 081236Z 36008KT 01/01 A3027 RMK A01 T00100006  RH  098%=      5-min Rain = 0
KST2 081237Z 36008KT 01/01 A3027 RMK A01 T00100006  RH  098%=      5-min Rain = 0
KST2 081238Z 35009KT 01/01 A3027 RMK A01 T00100007  RH  098%=      5-min Rain = 0.01
KST2 081239Z 00010KT 01/01 A3027 RMK A01 T00100006  RH  098%=      5-min Rain = 0
KST2 081240Z 00011KT 01/01 A3027 RMK A01 T00090006  RH  098%=      5-min Rain = 0
KST2 081241Z 00013KT 01/01 A3027 RMK A01 T00090005  RH  098%=      5-min Rain = 0
KST2 081242Z 36013KT 01/01 A3027 RMK A01 T00080005  RH  098%=      5-min Rain = 0
KST2 081243Z 36011KT 01/00 A3027 RMK A01 T00080004  RH  098%=      5-min Rain = 0
KST2 081244Z 00012KT 01/00 A3027 RMK A01 T00080004  RH  098%=      5-min Rain = 0.01
KST2 081245Z 01012KT 01/00 A3027 RMK A01 T00080004  RH  097%=      5-min Rain = 0
KST2 081246Z 00013KT 01/00 A3027 RMK A01 T00080004  RH  097%=      5-min Rain = 0
KST2 081247Z 01012KT 01/00 A3027 RMK A01 T00070004  RH  097%=      5-min Rain = 0
KST2 081248Z 00011KT 01/00 A3027 RMK A01 T00070003  RH  097%=      5-min Rain = 0
KST2 081249Z 01011KT 01/00 A3027 RMK A01 T00070003  RH  097%=      5-min Rain = 0
KST2 081250Z 01014KT 01/00 A3027 RMK A01 T00070003  RH  097%=      5-min Rain = 0.01
KST2 081251Z 00011KT 01/00 A3027 RMK A01 T00070003  RH  097%=      5-min Rain = 0
KST2 081252Z 01011KT 01/00 A3027 RMK A01 T00070003  RH  097%=      5-min Rain = 0
KST2 081253Z 00010KT 01/00 A3027 RMK A01 T00070003  RH  097%=      5-min Rain = 0
KST2 081254Z 00011KT 01/00 A3027 RMK A01 T00060002  RH  097%=      5-min Rain = 0.01
KST2 081255Z 00014KT 01/00 A3027 RMK A01 T00060002  RH  097%=      5-min Rain = 0
KST2 081256Z 00014KT 01/00 A3027 RMK A01 T00060002  RH  097%=      5-min Rain = 0
KST2 081257Z 00011KT 01/00 A3027 RMK A01 T00060002  RH  097%=      5-min Rain = 0
KST2 081258Z 36011KT 01/00 A3027 RMK A01 T00060001  RH  097%=      5-min Rain = 0
KST2 081259Z 36014KT 01/00 A3027 RMK A01 T00060002  RH  097%=      5-min Rain = 0
KST2 081300Z 00014KT 01/00 A3027 RMK A01 T00060001  RH  097%=      5-min Rain = 0.01
KST2 081301Z 00011KT 01/00 A3028 RMK A01 T00060002  RH  097%=      5-min Rain = 0
KST2 081302Z 00011KT 01/00 A3028 RMK A01 T00060002  RH  097%=      5-min Rain = 0
KST2 081303Z 00011KT 01/00 A3028 RMK A01 T00050001  RH  097%=      5-min Rain = 0
KST2 081304Z 00012KT 01/00 A3028 RMK A01 T00050001  RH  097%=      5-min Rain = 0
KST2 081305Z 00011KT 01/00 A3028 RMK A01 T00050001  RH  097%=      5-min Rain = 0
KST2 081306Z 36013KT 01/00 A3028 RMK A01 T00050001  RH  097%=      5-min Rain = 0
KST2 081307Z 01012KT 01/00 A3028 RMK A01 T00050001  RH  097%=      5-min Rain = 0
KST2 081308Z 01010KT 01/00 A3028 RMK A01 T00050000  RH  097%=      5-min Rain = 0
KST2 081309Z 36012G17KT 01/00 A3028 RMK A01 T00050000  RH  097%=      5-min Rain = 0
KST2 081310Z 01013KT 01/00 A3028 RMK A01 T00050000  RH  097%=      5-min Rain = 0
KST2 081311Z 01012KT 01/00 A3028 RMK A01 T000500-0  RH  097%=      5-min Rain = 0
KST2 081312Z 01011KT 01/00 A3028 RMK A01 T00050000  RH  097%=      5-min Rain = 0
KST2 081313Z 01012KT 00/00 A3028 RMK A01 T000400-0  RH  097%=      5-min Rain = 0
KST2 081314Z 01013KT 00/00 A3028 RMK A01 T000400-0  RH  097%=      5-min Rain = 0
KST2 081315Z 00009KT 00/M00 A3028 RMK A01 T00041001  RH  097%=      5-min Rain = 0
KST2 081316Z 00008KT 00/M00 A3028 RMK A01 T00041001  RH  097%=      5-min Rain = 0
KST2 081317Z 35010KT 00/M00 A3028 RMK A01 T00031001  RH  097%=      5-min Rain = 0
KST2 081318Z 35010KT 00/M00 A3028 RMK A01 T00041001  RH  097%=      5-min Rain = 0
KST2 081319Z 36010KT 00/M00 A3028 RMK A01 T00031001  RH  097%=      5-min Rain = 0
KST2 081320Z 36011KT 00/M00 A3028 RMK A01 T00031001  RH  097%=      5-min Rain = 0
KST2 081321Z 35010KT 00/M00 A3028 RMK A01 T00031001  RH  098%=      5-min Rain = 0
KST2 081322Z 35010KT 00/M00 A3028 RMK A01 T00021001  RH  098%=      5-min Rain = 0
KST2 081323Z 36011KT 00/M00 A3028 RMK A01 T00021001  RH  098%=      5-min Rain = 0
KST2 081324Z 36013KT 00/M00 A3028 RMK A01 T00021001  RH  098%=      5-min Rain = 0
KST2 081325Z 35012KT 00/M00 A3028 RMK A01 T00021001  RH  098%=      5-min Rain = 0
KST2 081326Z 35012KT 00/M00 A3028 RMK A01 T00021001  RH  098%=      5-min Rain = 0
KST2 081327Z 36012KT 00/M00 A3028 RMK A01 T00021001  RH  098%=      5-min Rain = 0
KST2 081328Z 00013KT 00/M00 A3028 RMK A01 T00021001  RH  098%=      5-min Rain = 0
KST2 081329Z 00011KT 00/M00 A3029 RMK A01 T00021001  RH  098%=      5-min Rain = 0
KST2 081330Z 36011KT 00/M00 A3029 RMK A01 T00021001  RH  098%=      5-min Rain = 0
KST2 081331Z 00009KT 00/M00 A3029 RMK A01 T00021001  RH  098%=      5-min Rain = 0
KST2 081332Z 01010KT 00/M00 A3029 RMK A01 T00011002  RH  098%=      5-min Rain = 0
KST2 081333Z 36009KT 00/M00 A3029 RMK A01 T00011001  RH  098%=      5-min Rain = 0
KST2 081334Z 00009KT 00/M00 A3029 RMK A01 T00011001  RH  098%=      5-min Rain = 0
KST2 081335Z 00010KT 00/M00 A3029 RMK A01 T00011001  RH  098%=      5-min Rain = 0
KST2 081336Z 35009KT 00/M00 A3029 RMK A01 T00011001  RH  098%=      5-min Rain = 0
KST2 081337Z 36008KT 00/M00 A3029 RMK A01 T00011001  RH  098%=      5-min Rain = 0
KST2 081338Z 35007KT 00/M00 A3029 RMK A01 T00011002  RH  098%=      5-min Rain = 0
KST2 081339Z 36011KT 00/M00 A3029 RMK A01 T00011002  RH  099%=      5-min Rain = 0
KST2 081340Z 36011KT 00/M00 A3029 RMK A01 T00011001  RH  099%=      5-min Rain = 0
KST2 081341Z 00011KT 00/M00 A3029 RMK A01 T00011001  RH  099%=      5-min Rain = 0
KST2 081342Z 00010KT 00/M00 A3029 RMK A01 T00011001  RH  099%=      5-min Rain = 0
KST2 081343Z 00011KT 00/M00 A3029 RMK A01 T00011001  RH  099%=      5-min Rain = 0
KST2 081344Z 00012KT 00/M00 A3029 RMK A01 T00011001  RH  099%=      5-min Rain = 0
KST2 081345Z 36012KT 00/00 A3029 RMK A01 T000000-2  RH  099%=      5-min Rain = 0
KST2 081346Z 00013KT 00/00 A3029 RMK A01 T000000-2  RH  099%=      5-min Rain = 0
KST2 081347Z 36012KT 00/00 A3029 RMK A01 T000000-2  RH  099%=      5-min Rain = 0
KST2 081348Z 00013KT 00/00 A3029 RMK A01 T000000-2  RH  099%=      5-min Rain = 0
KST2 081349Z 00011KT 00/00 A3029 RMK A01 T000000-1  RH  099%=      5-min Rain = 0
KST2 081350Z 00010KT 00/00 A3029 RMK A01 T000000-1  RH  099%=      5-min Rain = 0
KST2 081351Z 00008KT 00/00 A3029 RMK A01 T000000-1  RH  099%=      5-min Rain = 0
KST2 081352Z 36010KT 00/00 A3029 RMK A01 T000000-1  RH  099%=      5-min Rain = 0
KST2 081353Z 36009KT 00/00 A3029 RMK A01 T000000-1  RH  099%=      5-min Rain = 0
KST2 081354Z 36009KT 00/00 A3029 RMK A01 T000000-1  RH  099%=      5-min Rain = 0
KST2 081355Z 36011KT 00/00 A3029 RMK A01 T00-000-2  RH  099%=      5-min Rain = 0
KST2 081356Z 35010KT 00/00 A3029 RMK A01 T00-000-2  RH  099%=      5-min Rain = 0
KST2 081357Z 35011KT 00/00 A303 RMK A01 T00-000-2  RH  099%=      5-min Rain = 0
KST2 081358Z 36013KT 00/00 A303 RMK A01 T00-000-2  RH  099%=      5-min Rain = 0
KST2 081359Z 35011KT M00/M00 A303 RMK A01 T10011002  RH  099%=      5-min Rain = 0
KST2 081400Z 36012KT M00/M00 A303 RMK A01 T10011002  RH  099%=      5-min Rain = 0
KST2 081401Z 00011KT M00/M00 A303 RMK A01 T10011002  RH  099%=      5-min Rain = 0
KST2 081402Z 36011G16KT M00/M00 A303 RMK A01 T10011003  RH  099%=      5-min Rain = 0
KST2 081403Z 36013KT M00/M00 A303 RMK A01 T10011002  RH  099%=      5-min Rain = 0
KST2 081404Z 36011KT M00/M00 A303 RMK A01 T10011002  RH  099%=      5-min Rain = 0
KST2 081405Z 36011KT M00/M00 A303 RMK A01 T10011002  RH  099%=      5-min Rain = 0
KST2 081406Z 00011KT M00/M00 A303 RMK A01 T10011002  RH  099%=      5-min Rain = 0
KST2 081407Z 00012KT M00/M00 A303 RMK A01 T10011002  RH  099%=      5-min Rain = 0
KST2 081408Z 00011KT M00/M00 A303 RMK A01 T10011002  RH  099%=      5-min Rain = 0
KST2 081409Z 00012KT M00/M00 A303 RMK A01 T10011003  RH  099%=      5-min Rain = 0
KST2 081410Z 36012KT M00/M00 A303 RMK A01 T10021003  RH  099%=      5-min Rain = 0
KST2 081411Z 00012KT M00/M00 A303 RMK A01 T10021002  RH  099%=      5-min Rain = 0
KST2 081412Z 35011KT M00/M00 A303 RMK A01 T10021003  RH  099%=      5-min Rain = 0
KST2 081413Z 35011KT M00/M00 A303 RMK A01 T10021002  RH  099%=      5-min Rain = 0
KST2 081414Z 35009KT M00/M00 A303 RMK A01 T10021002  RH  099%=      5-min Rain = 0
KST2 081415Z 36009KT M00/M00 A303 RMK A01 T10021002  RH  099%=      5-min Rain = 0
KST2 081416Z 35009KT M00/M00 A303 RMK A01 T10021002  RH  100%=      5-min Rain = 0
KST2 081417Z 35009KT M00/M00 A303 RMK A01 T10021002  RH  100%=      5-min Rain = 0
KST2 081418Z 35010KT M00/M00 A303 RMK A01 T10021002  RH  100%=      5-min Rain = 0
KST2 081419Z 36012KT M00/M00 A303 RMK A01 T10021002  RH  100%=      5-min Rain = 0
KST2 081420Z 35012KT M00/M00 A303 RMK A01 T10021002  RH  100%=      5-min Rain = 0
KST2 081421Z 36012KT M00/M00 A303 RMK A01 T10021003  RH  100%=      5-min Rain = 0
KST2 081422Z 35012KT M00/M00 A3031 RMK A01 T10021003  RH  100%=      5-min Rain = 0
KST2 081423Z 36011KT M00/M00 A3031 RMK A01 T10021003  RH  100%=      5-min Rain = 0
KST2 081424Z 36010KT M00/M00 A3031 RMK A01 T10021003  RH  100%=      5-min Rain = 0
KST2 081425Z 36011KT M00/M00 A3031 RMK A01 T10021003  RH  100%=      5-min Rain = 0
KST2 081426Z 36009KT M00/M00 A3031 RMK A01 T10021002  RH  100%=      5-min Rain = 0
KST2 081427Z 00010KT M00/M00 A3031 RMK A01 T10021003  RH  100%=      5-min Rain = 0
KST2 081428Z 35010KT M00/M00 A3031 RMK A01 T10021003  RH  100%=      5-min Rain = 0
KST2 081429Z 35011KT M00/M00 A3031 RMK A01 T10021002  RH  100%=      5-min Rain = 0
KST2 081430Z 36010KT M00/M00 A3031 RMK A01 T10031003  RH  100%=      5-min Rain = 0
KST2 081431Z 35011KT M00/M00 A3031 RMK A01 T10031003  RH  100%=      5-min Rain = 0
KST2 081432Z 35012KT M00/M00 A3031 RMK A01 T10031003  RH  100%=      5-min Rain = 0
KST2 081433Z 35012KT M00/M00 A3031 RMK A01 T10031003  RH  100%=      5-min Rain = 0
KST2 081434Z 00012KT M00/M00 A3031 RMK A01 T10021003  RH  100%=      5-min Rain = 0
KST2 081435Z 00014KT M00/M00 A3031 RMK A01 T10031003  RH  100%=      5-min Rain = 0
KST2 081436Z 36012KT M00/M00 A3031 RMK A01 T10031003  RH  100%=      5-min Rain = 0
KST2 081437Z 00014KT M00/M00 A3031 RMK A01 T10031003  RH  100%=      5-min Rain = 0
KST2 081438Z 00015KT M00/M00 A3031 RMK A01 T10031003  RH  100%=      5-min Rain = 0
KST2 081439Z 00012KT M00/M00 A3031 RMK A01 T10031004  RH  100%=      5-min Rain = 0
KST2 081440Z 00013KT M00/M00 A3031 RMK A01 T10041004  RH  100%=      5-min Rain = 0
KST2 081441Z 00011KT M00/M00 A3031 RMK A01 T10031004  RH  100%=      5-min Rain = 0
KST2 081442Z 00012KT M00/M00 A3031 RMK A01 T10041004  RH  100%=      5-min Rain = 0
KST2 081443Z 36014KT M00/M00 A3031 RMK A01 T10041004  RH  100%=      5-min Rain = 0
KST2 081444Z 36012KT M00/M00 A3031 RMK A01 T10041004  RH  100%=      5-min Rain = 0
KST2 081445Z 36010KT M00/M00 A3031 RMK A01 T10041004  RH  100%=      5-min Rain = 0
KST2 081446Z 35011KT M00/M00 A3031 RMK A01 T10031004  RH  100%=      5-min Rain = 0
KST2 081447Z 36011KT M00/M00 A3031 RMK A01 T10041004  RH  100%=      5-min Rain = 0
KST2 081448Z 36011KT M00/M00 A3031 RMK A01 T10031004  RH  100%=      5-min Rain = 0
KST2 081449Z 36011KT M00/M00 A3032 RMK A01 T10031004  RH  100%=      5-min Rain = 0
KST2 081450Z 35010KT M00/M00 A3032 RMK A01 T10041004  RH  100%=      5-min Rain = 0
KST2 081451Z 35010KT M00/M00 A3032 RMK A01 T10031003  RH  100%=      5-min Rain = 0
KST2 081452Z 35009KT M00/M00 A3032 RMK A01 T10041004  RH  100%=      5-min Rain = 0
KST2 081453Z 35010KT M00/M00 A3032 RMK A01 T10041004  RH  100%=      5-min Rain = 0
KST2 081454Z 35009KT M00/M00 A3032 RMK A01 T10041004  RH  100%=      5-min Rain = 0
KST2 081455Z 34010KT M00/M00 A3032 RMK A01 T10031004  RH  100%=      5-min Rain = 0
KST2 081456Z 34011KT M00/M00 A3032 RMK A01 T10031003  RH  100%=      5-min Rain = 0
KST2 081457Z 35013KT M00/M00 A3032 RMK A01 T10031004  RH  100%=      5-min Rain = 0
KST2 081458Z 35012KT M00/M00 A3032 RMK A01 T10041004  RH  100%=      5-min Rain = 0
KST2 081459Z 35012KT M00/M00 A3032 RMK A01 T10041004  RH  100%=      5-min Rain = 0
KST2 081500Z 35012KT M00/M00 A3032 RMK A01 T10041004  RH  100%=      5-min Rain = 0
KST2 081501Z 35011KT M00/M00 A3032 RMK A01 T10041004  RH  100%=      5-min Rain = 0
KST2 081502Z 36011KT M00/M00 A3032 RMK A01 T10041004  RH  100%=      5-min Rain = 0
KST2 081503Z 35011KT M00/M00 A3032 RMK A01 T10041004  RH  100%=      5-min Rain = 0
KST2 081504Z 35012KT M00/M00 A3032 RMK A01 T10041004  RH  100%=      5-min Rain = 0
KST2 081505Z 35009KT M00/M00 A3032 RMK A01 T10041004  RH  100%=      5-min Rain = 0
KST2 081506Z 35011KT M00/M00 A3032 RMK A01 T10041004  RH  100%=      5-min Rain = 0
KST2 081507Z 35012KT M00/M00 A3032 RMK A01 T10041004  RH  100%=      5-min Rain = 0
KST2 081508Z 35010KT M00/M00 A3032 RMK A01 T10041004  RH  100%=      5-min Rain = 0
KST2 081509Z 35010KT M00/M00 A3032 RMK A01 T10041004  RH  100%=      5-min Rain = 0
KST2 081510Z 36010KT M00/M00 A3032 RMK A01 T10041004  RH  100%=      5-min Rain = 0
KST2 081511Z 35010KT M00/M01 A3032 RMK A01 T10041005  RH  100%=      5-min Rain = 0
KST2 081512Z 35010KT M00/M00 A3032 RMK A01 T10041004  RH  100%=      5-min Rain = 0
KST2 081513Z 35012KT M00/M00 A3032 RMK A01 T10041004  RH  100%=      5-min Rain = 0
KST2 081514Z 35012KT M00/M00 A3032 RMK A01 T10041004  RH  100%=      5-min Rain = 0
KST2 081515Z 36011KT M00/M00 A3032 RMK A01 T10041004  RH  100%=      5-min Rain = 0
KST2 081516Z 35012KT M00/M00 A3032 RMK A01 T10041004  RH  100%=      5-min Rain = 0
KST2 081517Z 35011KT M00/M00 A3033 RMK A01 T10041004  RH  100%=      5-min Rain = 0
KST2 081518Z 35012KT M00/M00 A3033 RMK A01 T10041004  RH  100%=      5-min Rain = 0
KST2 081519Z 35011KT M00/M00 A3033 RMK A01 T10041004  RH  100%=      5-min Rain = 0
KST2 081520Z 35011KT M00/M00 A3033 RMK A01 T10041004  RH  100%=      5-min Rain = 0
KST2 081521Z 35010KT M00/M00 A3033 RMK A01 T10041004  RH  100%=      5-min Rain = 0
KST2 081522Z 35010KT M01/M01 A3033 RMK A01 T10051005  RH  100%=      5-min Rain = 0
KST2 081523Z 35010KT M01/M01 A3033 RMK A01 T10051005  RH  100%=      5-min Rain = 0
KST2 081524Z 35010KT M00/M00 A3033 RMK A01 T10041004  RH  100%=      5-min Rain = 0
KST2 081525Z 35010KT M00/M01 A3033 RMK A01 T10041005  RH  100%=      5-min Rain = 0
KST2 081526Z 35014KT M00/M00 A3033 RMK A01 T10041004  RH  100%=      5-min Rain = 0
KST2 081527Z 35012KT M00/M00 A3033 RMK A01 T10041004  RH  100%=      5-min Rain = 0
KST2 081528Z 35011KT M00/M00 A3033 RMK A01 T10041004  RH  100%=      5-min Rain = 0
KST2 081529Z 34009KT M00/M00 A3033 RMK A01 T10041004  RH  100%=      5-min Rain = 0
KST2 081530Z 34009KT M00/M00 A3033 RMK A01 T10041004  RH  100%=      5-min Rain = 0
KST2 081531Z 34010KT M01/M01 A3033 RMK A01 T10051005  RH  100%=      5-min Rain = 0
KST2 081532Z 34010KT M00/M00 A3033 RMK A01 T10041004  RH  100%=      5-min Rain = 0
KST2 081533Z 35011KT M00/M00 A3033 RMK A01 T10041004  RH  100%=      5-min Rain = 0
KST2 081534Z 34010KT M00/M00 A3033 RMK A01 T10041004  RH  100%=      5-min Rain = 0
KST2 081535Z 34009KT M00/M00 A3033 RMK A01 T10041004  RH  100%=      5-min Rain = 0
KST2 081536Z 34009KT M00/M00 A3033 RMK A01 T10041004  RH  100%=      5-min Rain = 0
KST2 081537Z 34010KT M00/M00 A3033 RMK A01 T10041004  RH  100%=      5-min Rain = 0
KST2 081538Z 35010KT M00/M00 A3033 RMK A01 T10041004  RH  100%=      5-min Rain = 0
KST2 081539Z 35010KT M00/M00 A3033 RMK A01 T10041004  RH  100%=      5-min Rain = 0
KST2 081540Z 35012KT M00/M00 A3033 RMK A01 T10041004  RH  100%=      5-min Rain = 0
KST2 081541Z 34011KT M00/M01 A3033 RMK A01 T10041005  RH  100%=      5-min Rain = 0
KST2 081542Z 34012KT M00/M01 A3033 RMK A01 T10041005  RH  100%=      5-min Rain = 0
KST2 081543Z 34011KT M00/M01 A3033 RMK A01 T10041005  RH  100%=      5-min Rain = 0
KST2 081544Z 34010KT M01/M01 A3033 RMK A01 T10051005  RH  100%=      5-min Rain = 0
KST2 081545Z 34009KT M00/M00 A3033 RMK A01 T10041004  RH  100%=      5-min Rain = 0
KST2 081546Z 34012KT M00/M01 A3033 RMK A01 T10041005  RH  100%=      5-min Rain = 0
KST2 081547Z 34011KT M00/M01 A3033 RMK A01 T10041005  RH  100%=      5-min Rain = 0
KST2 081548Z 34010KT M00/M00 A3033 RMK A01 T10041004  RH  100%=      5-min Rain = 0
KST2 081549Z 35013KT M00/M00 A3033 RMK A01 T10041004  RH  100%=      5-min Rain = 0
KST2 081550Z 34011KT M00/M01 A3033 RMK A01 T10041005  RH  100%=      5-min Rain = 0
KST2 081551Z 34010KT M00/M00 A3033 RMK A01 T10041004  RH  100%=      5-min Rain = 0
KST2 081552Z 34011KT M00/M00 A3033 RMK A01 T10041004  RH  100%=      5-min Rain = 0
KST2 081553Z 35009KT M00/M00 A3033 RMK A01 T10041004  RH  100%=      5-min Rain = 0
KST2 081554Z 34011KT M00/M00 A3033 RMK A01 T10041004  RH  100%=      5-min Rain = 0
KST2 081555Z 34011KT M00/M00 A3033 RMK A01 T10041004  RH  100%=      5-min Rain = 0
KST2 081556Z 34010KT M00/M00 A3033 RMK A01 T10041004  RH  100%=      5-min Rain = 0
KST2 081557Z 35011KT M00/M00 A3033 RMK A01 T10041004  RH  100%=      5-min Rain = 0
KST2 081558Z 34011KT M00/M00 A3033 RMK A01 T10041004  RH  100%=      5-min Rain = 0
KST2 081559Z 35011KT M00/M00 A3033 RMK A01 T10041004  RH  100%=      5-min Rain = 0
KST2 081600Z 34010KT M00/M00 A3033 RMK A01 T10041004  RH  100%=      5-min Rain = 0
KST2 081601Z 35011KT M00/M00 A3033 RMK A01 T10041004  RH  100%=      5-min Rain = 0
KST2 081602Z 35012KT M00/M00 A3033 RMK A01 T10041004  RH  100%=      5-min Rain = 0
KST2 081603Z 34012KT M00/M00 A3033 RMK A01 T10041004  RH  100%=      5-min Rain = 0
KST2 081604Z 34013KT M00/M00 A3033 RMK A01 T10041004  RH  100%=      5-min Rain = 0
KST2 081605Z 34012KT M00/M00 A3033 RMK A01 T10041004  RH  100%=      5-min Rain = 0
KST2 081606Z 35013KT M00/M00 A3033 RMK A01 T10041004  RH  100%=      5-min Rain = 0
KST2 081607Z 35011KT M00/M00 A3033 RMK A01 T10041004  RH  100%=      5-min Rain = 0
KST2 081608Z 34011KT M00/M00 A3033 RMK A01 T10041004  RH  100%=      5-min Rain = 0
KST2 081609Z 34011KT M00/M00 A3033 RMK A01 T10041004  RH  100%=      5-min Rain = 0
KST2 081610Z 34010KT M00/M00 A3034 RMK A01 T10041004  RH  100%=      5-min Rain = 0
KST2 081611Z 35010KT M00/M00 A3034 RMK A01 T10041004  RH  100%=      5-min Rain = 0
KST2 081612Z 34011KT M00/M00 A3034 RMK A01 T10041004  RH  100%=      5-min Rain = 0
KST2 081613Z 34010KT M00/M00 A3034 RMK A01 T10041004  RH  100%=      5-min Rain = 0
KST2 081614Z 34011KT M00/M00 A3034 RMK A01 T10041004  RH  100%=      5-min Rain = 0
KST2 081615Z 35012KT M00/M00 A3033 RMK A01 T10041004  RH  100%=      5-min Rain = 0
KST2 081616Z 35012KT M00/M00 A3033 RMK A01 T10041004  RH  100%=      5-min Rain = 0
KST2 081617Z 34011KT M00/M00 A3033 RMK A01 T10041004  RH  100%=      5-min Rain = 0
KST2 081618Z 34010KT M00/M00 A3033 RMK A01 T10041004  RH  100%=      5-min Rain = 0
KST2 081619Z 34010KT M00/M00 A3033 RMK A01 T10041004  RH  100%=      5-min Rain = 0
KST2 081620Z 35012KT M00/M00 A3033 RMK A01 T10041004  RH  100%=      5-min Rain = 0
KST2 081621Z 34012KT M00/M00 A3033 RMK A01 T10041004  RH  100%=      5-min Rain = 0
KST2 081622Z 35011KT M00/M00 A3033 RMK A01 T10041004  RH  100%=      5-min Rain = 0
KST2 081623Z 35011KT M00/M00 A3033 RMK A01 T10041004  RH  100%=      5-min Rain = 0
KST2 081624Z 35011KT M00/M00 A3033 RMK A01 T10041004  RH  100%=      5-min Rain = 0
KST2 081625Z 34011KT M00/M00 A3033 RMK A01 T10041004  RH  100%=      5-min Rain = 0
KST2 081626Z 35013KT M00/M00 A3033 RMK A01 T10041004  RH  100%=      5-min Rain = 0
KST2 081627Z 34011KT M00/M00 A3033 RMK A01 T10041004  RH  100%=      5-min Rain = 0
KST2 081628Z 34012KT M00/M00 A3033 RMK A01 T10041004  RH  100%=      5-min Rain = 0
KST2 081629Z 34010KT M00/M00 A3033 RMK A01 T10041004  RH  100%=      5-min Rain = 0
KST2 081630Z 34012KT M00/M00 A3033 RMK A01 T10041004  RH  100%=      5-min Rain = 0
KST2 081631Z 35012KT M00/M00 A3033 RMK A01 T10041004  RH  100%=      5-min Rain = 0
KST2 081632Z 35011KT M00/M00 A3033 RMK A01 T10041004  RH  100%=      5-min Rain = 0
KST2 081633Z 35011KT M00/M00 A3033 RMK A01 T10041004  RH  100%=      5-min Rain = 0
KST2 081634Z 34012KT M00/M00 A3033 RMK A01 T10041004  RH  100%=      5-min Rain = 0
KST2 081635Z 35012KT M00/M00 A3033 RMK A01 T10041004  RH  100%=      5-min Rain = 0
KST2 081636Z 34012KT M00/M00 A3033 RMK A01 T10041004  RH  100%=      5-min Rain = 0
KST2 081637Z 34012KT M00/M01 A3033 RMK A01 T10041005  RH  100%=      5-min Rain = 0
KST2 081638Z 34011KT M00/M01 A3033 RMK A01 T10041005  RH  100%=      5-min Rain = 0
KST2 081639Z 35011KT M00/M01 A3033 RMK A01 T10041005  RH  100%=      5-min Rain = 0
KST2 081640Z 34012KT M00/M01 A3033 RMK A01 T10041005  RH  100%=      5-min Rain = 0
KST2 081641Z 34011KT M00/M01 A3033 RMK A01 T10041005  RH  100%=      5-min Rain = 0
KST2 081642Z 35013KT M00/M01 A3033 RMK A01 T10041005  RH  100%=      5-min Rain = 0
KST2 081643Z 35013KT M00/M01 A3033 RMK A01 T10041005  RH  100%=      5-min Rain = 0
KST2 081644Z 35012KT M00/M01 A3033 RMK A01 T10041005  RH  100%=      5-min Rain = 0
KST2 081645Z 35012KT M00/M01 A3034 RMK A01 T10041005  RH  100%=      5-min Rain = 0
KST2 081646Z 35014KT M00/M01 A3034 RMK A01 T10041005  RH  100%=      5-min Rain = 0
KST2 081647Z 35012KT M00/M01 A3033 RMK A01 T10041005  RH  100%=      5-min Rain = 0
KST2 081648Z 34010KT M00/M01 A3034 RMK A01 T10041005  RH  100%=      5-min Rain = 0
KST2 081649Z 34012KT M00/M01 A3034 RMK A01 T10041005  RH  100%=      5-min Rain = 0
KST2 081650Z 34013KT M00/M01 A3034 RMK A01 T10041005  RH  100%=      5-min Rain = 0
KST2 081651Z 34013KT M01/M01 A3034 RMK A01 T10051005  RH  100%=      5-min Rain = 0
KST2 081652Z 34012KT M01/M01 A3034 RMK A01 T10051005  RH  100%=      5-min Rain = 0
KST2 081653Z 35011KT M01/M01 A3034 RMK A01 T10051005  RH  100%=      5-min Rain = 0
KST2 081654Z 35012KT M01/M01 A3034 RMK A01 T10051005  RH  100%=      5-min Rain = 0
KST2 081655Z 34012KT M01/M01 A3034 RMK A01 T10051005  RH  100%=      5-min Rain = 0
KST2 081656Z 34014KT M01/M01 A3033 RMK A01 T10051005  RH  100%=      5-min Rain = 0
KST2 081657Z 35012KT M01/M01 A3034 RMK A01 T10051005  RH  100%=      5-min Rain = 0
KST2 081658Z 34011KT M01/M01 A3034 RMK A01 T10051005  RH  100%=      5-min Rain = 0
KST2 081659Z 34010KT M01/M01 A3034 RMK A01 T10051006  RH  100%=      5-min Rain = 0
KST2 081700Z 34012KT M01/M01 A3034 RMK A01 T10051006  RH  100%=      5-min Rain = 0
KST2 081701Z 34012KT M01/M01 A3034 RMK A01 T10051006  RH  100%=      5-min Rain = 0
KST2 081702Z 34011KT M01/M01 A3034 RMK A01 T10051006  RH  100%=      5-min Rain = 0
KST2 081703Z 34013KT M01/M01 A3034 RMK A01 T10051005  RH  100%=      5-min Rain = 0
KST2 081704Z 34013KT M01/M01 A3034 RMK A01 T10051006  RH  100%=      5-min Rain = 0
KST2 081705Z 34011KT M01/M01 A3034 RMK A01 T10051006  RH  100%=      5-min Rain = 0
KST2 081706Z 34013KT M01/M01 A3034 RMK A01 T10051005  RH  100%=      5-min Rain = 0
KST2 081707Z 34013KT M01/M01 A3034 RMK A01 T10051006  RH  100%=      5-min Rain = 0
KST2 081708Z 34014KT M01/M01 A3034 RMK A01 T10051005  RH  100%=      5-min Rain = 0
KST2 081709Z 34014KT M01/M01 A3034 RMK A01 T10061006  RH  100%=      5-min Rain = 0
KST2 081710Z 34014KT M01/M01 A3034 RMK A01 T10061006  RH  100%=      5-min Rain = 0
KST2 081711Z 35013KT M01/M01 A3034 RMK A01 T10061006  RH  100%=      5-min Rain = 0
KST2 081712Z 34012KT M01/M01 A3034 RMK A01 T10061006  RH  100%=      5-min Rain = 0
KST2 081713Z 34013KT M01/M01 A3034 RMK A01 T10061006  RH  100%=      5-min Rain = 0
KST2 081714Z 34013KT M01/M01 A3034 RMK A01 T10061006  RH  100%=      5-min Rain = 0
KST2 081715Z 34013KT M01/M01 A3034 RMK A01 T10061006  RH  100%=      5-min Rain = 0
KST2 081716Z 34013KT M01/M01 A3034 RMK A01 T10061006  RH  100%=      5-min Rain = 0
KST2 081717Z 34015KT M01/M01 A3034 RMK A01 T10061006  RH  100%=      5-min Rain = 0
KST2 081718Z 35013KT M01/M01 A3033 RMK A01 T10061006  RH  100%=      5-min Rain = 0
KST2 081719Z 34013KT M01/M01 A3034 RMK A01 T10061006  RH  100%=      5-min Rain = 0
KST2 081720Z 34013KT M01/M01 A3033 RMK A01 T10061006  RH  100%=      5-min Rain = 0
KST2 081721Z 34012KT M01/M01 A3033 RMK A01 T10061006  RH  100%=      5-min Rain = 0
KST2 081722Z 34013KT M01/M01 A3033 RMK A01 T10061006  RH  100%=      5-min Rain = 0
KST2 081723Z 34015KT M01/M01 A3033 RMK A01 T10061006  RH  100%=      5-min Rain = 0
KST2 081724Z 34015KT M01/M01 A3033 RMK A01 T10061006  RH  100%=      5-min Rain = 0
KST2 081725Z 34013KT M01/M01 A3033 RMK A01 T10061007  RH  100%=      5-min Rain = 0
KST2 081726Z 34011KT M01/M01 A3033 RMK A01 T10061007  RH  100%=      5-min Rain = 0
KST2 081727Z 34011KT M01/M01 A3033 RMK A01 T10061007  RH  100%=      5-min Rain = 0
KST2 081728Z 34013KT M01/M01 A3033 RMK A01 T10061006  RH  100%=      5-min Rain = 0
KST2 081729Z 34011KT M01/M01 A3033 RMK A01 T10061006  RH  100%=      5-min Rain = 0
KST2 081730Z 34011KT M01/M01 A3033 RMK A01 T10061006  RH  100%=      5-min Rain = 0
KST2 081731Z 34012KT M01/M01 A3033 RMK A01 T10061006  RH  100%=      5-min Rain = 0
KST2 081732Z 34012KT M01/M01 A3033 RMK A01 T10061006  RH  100%=      5-min Rain = 0
KST2 081733Z 34014KT M01/M01 A3033 RMK A01 T10061006  RH  100%=      5-min Rain = 0
KST2 081734Z 34014KT M01/M01 A3033 RMK A01 T10061006  RH  100%=      5-min Rain = 0
KST2 081735Z 34013KT M01/M01 A3033 RMK A01 T10061006  RH  100%=      5-min Rain = 0
KST2 081736Z 34014KT M01/M01 A3033 RMK A01 T10061006  RH  100%=      5-min Rain = 0
KST2 081737Z 34014KT M01/M01 A3033 RMK A01 T10061006  RH  100%=      5-min Rain = 0
KST2 081738Z 34014KT M01/M01 A3033 RMK A01 T10061006  RH  100%=      5-min Rain = 0
KST2 081739Z 34014KT M01/M01 A3033 RMK A01 T10061006  RH  100%=      5-min Rain = 0
KST2 081740Z 34015KT M01/M01 A3033 RMK A01 T10061006  RH  100%=      5-min Rain = 0
KST2 081741Z 35014KT M01/M01 A3033 RMK A01 T10061007  RH  100%=      5-min Rain = 0
KST2 081742Z 34015KT M01/M01 A3033 RMK A01 T10061007  RH  100%=      5-min Rain = 0
KST2 081743Z 34015KT M01/M01 A3033 RMK A01 T10061007  RH  100%=      5-min Rain = 0
KST2 081744Z 34014KT M01/M01 A3033 RMK A01 T10061007  RH  100%=      5-min Rain = 0
KST2 081745Z 34014KT M01/M01 A3033 RMK A01 T10061007  RH  100%=      5-min Rain = 0
KST2 081746Z 34014KT M01/M01 A3033 RMK A01 T10061007  RH  100%=      5-min Rain = 0
KST2 081747Z 34014KT M01/M01 A3033 RMK A01 T10061007  RH  100%=      5-min Rain = 0
KST2 081748Z 34014KT M01/M01 A3033 RMK A01 T10061007  RH  100%=      5-min Rain = 0
KST2 081749Z 34017KT M01/M01 A3033 RMK A01 T10061007  RH  100%=      5-min Rain = 0
KST2 081750Z 34016KT M01/M01 A3033 RMK A01 T10061007  RH  099%=      5-min Rain = 0
KST2 081751Z 34013KT M01/M01 A3033 RMK A01 T10061007  RH  099%=      5-min Rain = 0
KST2 081752Z 34014KT M01/M01 A3033 RMK A01 T10061007  RH  099%=      5-min Rain = 0
KST2 081753Z 34014KT M01/M01 A3033 RMK A01 T10061007  RH  099%=      5-min Rain = 0
KST2 081754Z 35015KT M01/M01 A3033 RMK A01 T10061007  RH  099%=      5-min Rain = 0
KST2 081755Z 34014KT M01/M01 A3033 RMK A01 T10061007  RH  099%=      5-min Rain = 0
KST2 081756Z 34013KT M01/M01 A3033 RMK A01 T10061007  RH  099%=      5-min Rain = 0
KST2 081757Z 34014KT M01/M01 A3033 RMK A01 T10061007  RH  099%=      5-min Rain = 0
KST2 081758Z 35013KT M01/M01 A3033 RMK A01 T10061007  RH  099%=      5-min Rain = 0
KST2 081759Z 35013KT M01/M01 A3033 RMK A01 T10061007  RH  099%=      5-min Rain = 0
KST2 081800Z 34014KT M01/M01 A3032 RMK A01 T10061007  RH  099%=      5-min Rain = 0
KST2 081801Z 34012KT M01/M01 A3032 RMK A01 T10061007  RH  099%=      5-min Rain = 0
KST2 081802Z 35013KT M01/M01 A3032 RMK A01 T10051006  RH  099%=      5-min Rain = 0
KST2 081803Z 34011KT M01/M01 A3032 RMK A01 T10051006  RH  099%=      5-min Rain = 0
KST2 081804Z 34014KT M01/M01 A3032 RMK A01 T10051006  RH  099%=      5-min Rain = 0
KST2 081805Z 35015KT M01/M01 A3032 RMK A01 T10051006  RH  099%=      5-min Rain = 0
KST2 081806Z 34012G17KT M01/M01 A3032 RMK A01 T10051006  RH  099%=      5-min Rain = 0
KST2 081807Z 35016KT M01/M01 A3032 RMK A01 T10051006  RH  099%=      5-min Rain = 0
KST2 081808Z 34013KT M01/M01 A3032 RMK A01 T10051006  RH  099%=      5-min Rain = 0
KST2 081809Z 34013KT M01/M01 A3032 RMK A01 T10051006  RH  099%=      5-min Rain = 0
KST2 081810Z 34013KT M01/M01 A3032 RMK A01 T10051006  RH  099%=      5-min Rain = 0
KST2 081811Z 34013KT M01/M01 A3032 RMK A01 T10051006  RH  099%=      5-min Rain = 0
KST2 081812Z 34015KT M00/M01 A3032 RMK A01 T10041006  RH  099%=      5-min Rain = 0
KST2 081813Z 35013KT M00/M01 A3032 RMK A01 T10041005  RH  099%=      5-min Rain = 0
KST2 081814Z 34014KT M00/M01 A3032 RMK A01 T10041005  RH  099%=      5-min Rain = 0
KST2 081815Z 35012KT M00/M01 A3032 RMK A01 T10041005  RH  099%=      5-min Rain = 0
KST2 081816Z 34011KT M00/M01 A3032 RMK A01 T10041005  RH  099%=      5-min Rain = 0
KST2 081817Z 33012KT M00/M01 A3032 RMK A01 T10041005  RH  099%=      5-min Rain = 0
KST2 081818Z 34012KT M00/M01 A3032 RMK A01 T10031005  RH  099%=      5-min Rain = 0
KST2 081819Z 34012KT M00/M00 A3032 RMK A01 T10031004  RH  099%=      5-min Rain = 0
KST2 081820Z 33012KT M00/M00 A3032 RMK A01 T10031004  RH  099%=      5-min Rain = 0
KST2 081821Z 34011KT M00/M00 A3032 RMK A01 T10031004  RH  099%=      5-min Rain = 0
KST2 081822Z 34013KT M00/M00 A3031 RMK A01 T10031004  RH  099%=      5-min Rain = 0
KST2 081823Z 34013KT M00/M00 A3031 RMK A01 T10021004  RH  099%=      5-min Rain = 0
KST2 081824Z 34011KT M00/M00 A3031 RMK A01 T10031004  RH  099%=      5-min Rain = 0
KST2 081825Z 34013KT M00/M00 A3031 RMK A01 T10021003  RH  099%=      5-min Rain = 0
KST2 081826Z 34013KT M00/M00 A3031 RMK A01 T10021004  RH  099%=      5-min Rain = 0
KST2 081827Z 34014KT M00/M00 A3031 RMK A01 T10021004  RH  099%=      5-min Rain = 0
KST2 081828Z 34013KT M00/M00 A3031 RMK A01 T10021003  RH  099%=      5-min Rain = 0
KST2 081829Z 34013KT M00/M00 A3031 RMK A01 T10021004  RH  099%=      5-min Rain = 0
KST2 081830Z 34013KT M00/M00 A3031 RMK A01 T10021003  RH  099%=      5-min Rain = 0
KST2 081831Z 34012KT M00/M00 A3031 RMK A01 T10011003  RH  099%=      5-min Rain = 0
KST2 081832Z 34013KT M00/M00 A3031 RMK A01 T10011003  RH  099%=      5-min Rain = 0
KST2 081833Z 34013KT M00/M00 A3031 RMK A01 T10011003  RH  099%=      5-min Rain = 0
KST2 081834Z 35013KT M00/M00 A3031 RMK A01 T10011003  RH  099%=      5-min Rain = 0
KST2 081835Z 34012KT M00/M00 A3031 RMK A01 T10011003  RH  099%=      5-min Rain = 0
KST2 081836Z 35013KT M00/M00 A303 RMK A01 T10011003  RH  099%=      5-min Rain = 0
KST2 081837Z 34012KT M00/M00 A303 RMK A01 T10011003  RH  099%=      5-min Rain = 0
KST2 081838Z 34011KT 00/00 A303 RMK A01 T00-000-2  RH  099%=      5-min Rain = 0
KST2 081839Z 34011KT 00/00 A303 RMK A01 T00-000-2  RH  099%=      5-min Rain = 0
KST2 081840Z 34012KT 00/00 A303 RMK A01 T00-000-2  RH  099%=      5-min Rain = 0
KST2 081841Z 34013KT 00/00 A303 RMK A01 T000000-2  RH  098%=      5-min Rain = 0
KST2 081842Z 35014KT 00/00 A303 RMK A01 T000000-2  RH  098%=      5-min Rain = 0
KST2 081843Z 34015KT 00/00 A303 RMK A01 T00-000-2  RH  098%=      5-min Rain = 0
KST2 081844Z 34014KT 00/00 A303 RMK A01 T00-000-3  RH  098%=      5-min Rain = 0
KST2 081845Z 35015KT 00/00 A303 RMK A01 T00-000-2  RH  098%=      5-min Rain = 0.01
KST2 081846Z 34015KT 00/00 A303 RMK A01 T00-000-3  RH  098%=      5-min Rain = 0
KST2 081847Z 34015KT 00/00 A303 RMK A01 T00-000-3  RH  098%=      5-min Rain = 0
KST2 081848Z 35013KT 00/00 A303 RMK A01 T00-000-3  RH  098%=      5-min Rain = 0.01
KST2 081849Z 35012KT 00/00 A303 RMK A01 T00-000-3  RH  098%=      5-min Rain = 0
KST2 081850Z 34011KT 00/00 A303 RMK A01 T000000-2  RH  098%=      5-min Rain = 0.01
KST2 081851Z 34012KT 00/00 A303 RMK A01 T000000-2  RH  098%=      5-min Rain = 0
KST2 081852Z 34014KT 00/M00 A303 RMK A01 T00011002  RH  098%=      5-min Rain = 0.01
KST2 081853Z 34013KT 00/M00 A303 RMK A01 T00011002  RH  098%=      5-min Rain = 0
KST2 081854Z 35013KT 00/M00 A303 RMK A01 T00011002  RH  098%=      5-min Rain = 0.01
KST2 081855Z 34014KT 00/M00 A303 RMK A01 T00011002  RH  098%=      5-min Rain = 0
KST2 081856Z 34015KT 00/M00 A303 RMK A01 T00011002  RH  098%=      5-min Rain = 0
KST2 081857Z 34013KT 00/M00 A303 RMK A01 T00011002  RH  098%=      5-min Rain = 0.01
KST2 081858Z 34014KT 00/M00 A303 RMK A01 T00011002  RH  098%=      5-min Rain = 0
KST2 081859Z 34014KT 00/M00 A303 RMK A01 T00011002  RH  098%=      5-min Rain = 0
KST2 081900Z 34013KT 00/M00 A303 RMK A01 T00011002  RH  098%=      5-min Rain = 0.01
KST2 081901Z 34013KT 00/M00 A303 RMK A01 T00011002  RH  098%=      5-min Rain = 0
KST2 081902Z 34013KT 00/M00 A303 RMK A01 T00011002  RH  098%=      5-min Rain = 0
KST2 081903Z 34013KT 00/M00 A303 RMK A01 T00011002  RH  098%=      5-min Rain = 0.01
KST2 081904Z 33015KT 00/M00 A303 RMK A01 T00021002  RH  098%=      5-min Rain = 0.01
KST2 081905Z 34016KT 00/M00 A303 RMK A01 T00021002  RH  098%=      5-min Rain = 0
KST2 081906Z 34013KT 00/M00 A303 RMK A01 T00011003  RH  097%=      5-min Rain = 0.01
KST2 081907Z 34013KT 00/M00 A303 RMK A01 T00011002  RH  098%=      5-min Rain = 0.01
KST2 081908Z 34013KT 00/M00 A303 RMK A01 T00021002  RH  098%=      5-min Rain = 0
KST2 081909Z 34013KT 00/M00 A303 RMK A01 T00021002  RH  098%=      5-min Rain = 0
KST2 081910Z 34013KT 00/M00 A303 RMK A01 T00021001  RH  098%=      5-min Rain = 0.01
KST2 081911Z 34013KT 00/M00 A303 RMK A01 T00021001  RH  098%=      5-min Rain = 0.01
KST2 081912Z 34012KT 00/M00 A303 RMK A01 T00021001  RH  098%=      5-min Rain = 0
KST2 081913Z 34011KT 00/M00 A303 RMK A01 T00021001  RH  098%=      5-min Rain = 0
KST2 081914Z 33012KT 00/M00 A303 RMK A01 T00021001  RH  098%=      5-min Rain = 0
KST2 081915Z 34010KT 00/M00 A303 RMK A01 T00021001  RH  097%=      5-min Rain = 0.01
KST2 081916Z 34012KT 00/M00 A303 RMK A01 T00031001  RH  098%=      5-min Rain = 0
KST2 081917Z 34013KT 00/M00 A303 RMK A01 T00031001  RH  098%=      5-min Rain = 0.01
KST2 081918Z 34013KT 00/M00 A303 RMK A01 T00031001  RH  098%=      5-min Rain = 0
KST2 081919Z 34014KT 00/M00 A303 RMK A01 T00021001  RH  097%=      5-min Rain = 0.01
KST2 081920Z 33015KT 00/M00 A303 RMK A01 T00021002  RH  097%=      5-min Rain = 0
KST2 081921Z 33011KT 00/M00 A303 RMK A01 T00021002  RH  097%=      5-min Rain = 0.01
KST2 081922Z 34011KT 00/M00 A303 RMK A01 T00021002  RH  097%=      5-min Rain = 0
KST2 081923Z 34015KT 00/M00 A303 RMK A01 T00021001  RH  098%=      5-min Rain = 0
KST2 081924Z 34015KT 00/M00 A303 RMK A01 T00031001  RH  097%=      5-min Rain = 0.01
KST2 081925Z 34015KT 00/M00 A303 RMK A01 T00021001  RH  097%=      5-min Rain = 0
KST2 081926Z 34014KT 00/M00 A303 RMK A01 T00021002  RH  097%=      5-min Rain = 0
KST2 081927Z 34012KT 00/M00 A303 RMK A01 T00021002  RH  097%=      5-min Rain = 0.01
KST2 081928Z 34014KT 00/M00 A303 RMK A01 T00021002  RH  097%=      5-min Rain = 0
KST2 081929Z 34013KT 00/M00 A303 RMK A01 T00021002  RH  097%=      5-min Rain = 0
KST2 081930Z 34012KT 00/M00 A303 RMK A01 T00021002  RH  097%=      5-min Rain = 0.01
KST2 081931Z 34015KT 00/M00 A3029 RMK A01 T00021002  RH  097%=      5-min Rain = 0
KST2 081932Z 34013KT 00/M00 A3029 RMK A01 T00021001  RH  097%=      5-min Rain = 0.01
KST2 081933Z 34015KT 00/M00 A3029 RMK A01 T00021002  RH  097%=      5-min Rain = 0
KST2 081934Z 34014KT 00/M00 A3029 RMK A01 T00021002  RH  097%=      5-min Rain = 0
KST2 081935Z 33010KT 00/M00 A3029 RMK A01 T00021002  RH  097%=      5-min Rain = 0.01
KST2 081936Z 33012KT 00/M00 A3029 RMK A01 T00021002  RH  097%=      5-min Rain = 0
KST2 081937Z 33013KT 00/M00 A3029 RMK A01 T00021002  RH  097%=      5-min Rain = 0.01
KST2 081938Z 33012KT 00/M00 A3029 RMK A01 T00021002  RH  097%=      5-min Rain = 0
KST2 081939Z 33014KT 00/M00 A3029 RMK A01 T00021002  RH  097%=      5-min Rain = 0
KST2 081940Z 34015KT 00/M00 A3029 RMK A01 T00021002  RH  097%=      5-min Rain = 0.01
KST2 081941Z 34015KT 00/M00 A3029 RMK A01 T00021002  RH  097%=      5-min Rain = 0
KST2 081942Z 34014KT 00/M00 A3029 RMK A01 T00021002  RH  097%=      5-min Rain = 0
KST2 081943Z 34014KT 00/M00 A3029 RMK A01 T00011002  RH  097%=      5-min Rain = 0.01
KST2 081944Z 33014G19KT 00/M00 A3029 RMK A01 T00021002  RH  098%=      5-min Rain = 0
KST2 081945Z 33014KT 00/M00 A3029 RMK A01 T00021002  RH  098%=      5-min Rain = 0
KST2 081946Z 33014KT 00/M00 A3029 RMK A01 T00011003  RH  098%=      5-min Rain = 0.01
KST2 081947Z 33014KT 00/M00 A3029 RMK A01 T00011003  RH  098%=      5-min Rain = 0
KST2 081948Z 33014KT 00/00 A3029 RMK A01 T000000-3  RH  098%=      5-min Rain = 0
KST2 081949Z 33015KT 00/00 A3029 RMK A01 T000000-3  RH  098%=      5-min Rain = 0
KST2 081950Z 33014KT 00/00 A3029 RMK A01 T000000-3  RH  098%=      5-min Rain = 0.01
KST2 081951Z 33012KT 00/00 A3029 RMK A01 T000000-3  RH  098%=      5-min Rain = 0
KST2 081952Z 33014KT 00/00 A3029 RMK A01 T000000-3  RH  098%=      5-min Rain = 0
KST2 081953Z 33013KT 00/00 A3029 RMK A01 T000000-3  RH  098%=      5-min Rain = 0.01
KST2 081954Z 33014KT 00/M00 A3029 RMK A01 T00011002  RH  098%=      5-min Rain = 0
KST2 081955Z 33014KT 00/M00 A3029 RMK A01 T00011003  RH  098%=      5-min Rain = 0
KST2 081956Z 34016KT 00/M00 A3029 RMK A01 T00011002  RH  098%=      5-min Rain = 0.01
KST2 081957Z 33012KT 00/00 A3029 RMK A01 T000000-3  RH  098%=      5-min Rain = 0
KST2 081958Z 33014KT 00/00 A3029 RMK A01 T000000-3  RH  098%=      5-min Rain = 0
KST2 081959Z 33012KT 00/00 A3029 RMK A01 T000000-3  RH  098%=      5-min Rain = 0
KST2 082000Z 33014KT 00/00 A3029 RMK A01 T00-000-3  RH  098%=      5-min Rain = 0
KST2 082001Z 33015KT 00/00 A3029 RMK A01 T00-000-4  RH  098%=      5-min Rain = 0.01
KST2 082002Z 34013KT 00/00 A3029 RMK A01 T00-000-3  RH  098%=      5-min Rain = 0
KST2 082003Z 34014KT M00/M00 A3029 RMK A01 T10011004  RH  098%=      5-min Rain = 0
KST2 082004Z 33012KT M00/M00 A3029 RMK A01 T10011004  RH  098%=      5-min Rain = 0
KST2 082005Z 34014KT M00/M00 A3029 RMK A01 T10011003  RH  098%=      5-min Rain = 0
KST2 082006Z 34011KT 00/00 A3029 RMK A01 T00-000-3  RH  098%=      5-min Rain = 0.01
KST2 082007Z 33011KT 00/00 A3029 RMK A01 T00-000-3  RH  098%=      5-min Rain = 0
KST2 082008Z 34011KT 00/00 A3029 RMK A01 T00-000-3  RH  098%=      5-min Rain = 0
KST2 082009Z 34012KT 00/00 A3029 RMK A01 T000000-2  RH  098%=      5-min Rain = 0
KST2 082010Z 33015KT 00/00 A3029 RMK A01 T000000-2  RH  098%=      5-min Rain = 0.01
KST2 082011Z 33011KT 00/00 A3029 RMK A01 T00-000-3  RH  098%=      5-min Rain = 0
KST2 082012Z 33012KT 00/00 A3029 RMK A01 T00-000-3  RH  098%=      5-min Rain = 0
KST2 082013Z 33014KT 00/00 A3029 RMK A01 T00-000-3  RH  098%=      5-min Rain = 0
KST2 082014Z 34013KT 00/00 A3029 RMK A01 T00-000-3  RH  098%=      5-min Rain = 0
KST2 082015Z 34011KT 00/00 A3029 RMK A01 T00-000-3  RH  098%=      5-min Rain = 0.01
KST2 082016Z 33015KT 00/00 A3029 RMK A01 T00-000-3  RH  098%=      5-min Rain = 0
KST2 082017Z 33012KT 00/00 A3029 RMK A01 T00-000-3  RH  098%=      5-min Rain = 0
KST2 082018Z 34012KT 00/00 A3029 RMK A01 T00-000-3  RH  098%=      5-min Rain = 0
KST2 082019Z 34011KT 00/00 A3029 RMK A01 T00-000-3  RH  098%=      5-min Rain = 0
KST2 082020Z 34013KT 00/00 A3029 RMK A01 T00-000-3  RH  098%=      5-min Rain = 0
KST2 082021Z 34012KT 00/00 A3029 RMK A01 T00-000-3  RH  098%=      5-min Rain = 0
KST2 082022Z 34012KT 00/00 A3029 RMK A01 T00-000-3  RH  098%=      5-min Rain = 0.01
KST2 082023Z 34015KT 00/00 A3029 RMK A01 T00-000-3  RH  098%=      5-min Rain = 0
KST2 082024Z 34014KT 00/00 A3029 RMK A01 T00-000-3  RH  098%=      5-min Rain = 0
KST2 082025Z 34013KT 00/00 A3029 RMK A01 T00-000-3  RH  098%=      5-min Rain = 0
KST2 082026Z 33013KT 00/00 A3029 RMK A01 T00-000-3  RH  098%=      5-min Rain = 0
KST2 082027Z 34013KT 00/00 A3029 RMK A01 T00-000-3  RH  098%=      5-min Rain = 0
KST2 082028Z 34014KT 00/00 A3029 RMK A01 T00-000-3  RH  098%=      5-min Rain = 0
KST2 082029Z 34014KT 00/00 A3029 RMK A01 T00-000-3  RH  098%=      5-min Rain = 0
KST2 082030Z 34013KT 00/00 A3029 RMK A01 T00-000-3  RH  098%=      5-min Rain = 0
KST2 082031Z 33014KT 00/00 A3028 RMK A01 T000000-3  RH  098%=      5-min Rain = 0.01
KST2 082032Z 34014KT 00/00 A3029 RMK A01 T00-000-3  RH  098%=      5-min Rain = 0
KST2 082033Z 34011KT 00/00 A3028 RMK A01 T00-000-3  RH  098%=      5-min Rain = 0
KST2 082034Z 34013KT 00/00 A3028 RMK A01 T000000-2  RH  098%=      5-min Rain = 0
KST2 082035Z 33012KT 00/00 A3028 RMK A01 T000000-2  RH  098%=      5-min Rain = 0
KST2 082036Z 34013KT 00/00 A3029 RMK A01 T000000-2  RH  098%=      5-min Rain = 0
KST2 082037Z 34013KT 00/00 A3029 RMK A01 T000000-3  RH  098%=      5-min Rain = 0
KST2 082038Z 34013KT 00/00 A3029 RMK A01 T000000-2  RH  098%=      5-min Rain = 0
KST2 082039Z 33012KT 00/00 A3029 RMK A01 T000000-2  RH  098%=      5-min Rain = 0
KST2 082040Z 34013KT 00/00 A3028 RMK A01 T000000-2  RH  098%=      5-min Rain = 0
KST2 082041Z 34013KT 00/00 A3029 RMK A01 T000000-2  RH  098%=      5-min Rain = 0
KST2 082042Z 34012KT 00/00 A3029 RMK A01 T000000-2  RH  098%=      5-min Rain = 0
KST2 082043Z 34014KT 00/00 A3028 RMK A01 T000000-2  RH  098%=      5-min Rain = 0.01
KST2 082044Z 34014KT 00/00 A3028 RMK A01 T000000-2  RH  098%=      5-min Rain = 0
KST2 082045Z 35014KT 00/00 A3028 RMK A01 T000000-2  RH  098%=      5-min Rain = 0
KST2 082046Z 35012KT 00/00 A3028 RMK A01 T000000-3  RH  098%=      5-min Rain = 0
KST2 082047Z 34013KT 00/M00 A3028 RMK A01 T00011002  RH  098%=      5-min Rain = 0
KST2 082048Z 34013KT 00/M00 A3028 RMK A01 T00011002  RH  098%=      5-min Rain = 0
KST2 082049Z 34013KT 00/M00 A3029 RMK A01 T00011002  RH  098%=      5-min Rain = 0
KST2 082050Z 34013KT 00/M00 A3028 RMK A01 T00011003  RH  098%=      5-min Rain = 0
KST2 082051Z 35012KT 00/M00 A3029 RMK A01 T00011002  RH  098%=      5-min Rain = 0
KST2 082052Z 34011KT 00/M00 A3029 RMK A01 T00011003  RH  098%=      5-min Rain = 0
KST2 082053Z 34011KT 00/M00 A3029 RMK A01 T00011003  RH  098%=      5-min Rain = 0
KST2 082054Z 34012KT 00/M00 A3029 RMK A01 T00011002  RH  098%=      5-min Rain = 0
KST2 082055Z 34015KT 00/M00 A3029 RMK A01 T00011003  RH  097%=      5-min Rain = 0
KST2 082056Z 34014KT 00/M00 A3029 RMK A01 T00011003  RH  097%=      5-min Rain = 0
KST2 082057Z 34013KT 00/00 A3029 RMK A01 T000000-3  RH  097%=      5-min Rain = 0
KST2 082058Z 34015KT 00/M00 A3029 RMK A01 T00011003  RH  097%=      5-min Rain = 0.01
KST2 082059Z 34014KT 00/M00 A3029 RMK A01 T00011004  RH  097%=      5-min Rain = 0
KST2 082100Z 34012KT 00/00 A3029 RMK A01 T000000-4  RH  097%=      5-min Rain = 0
KST2 082101Z 34014KT 00/00 A3029 RMK A01 T000000-4  RH  097%=      5-min Rain = 0
KST2 082102Z 34014KT 00/00 A3029 RMK A01 T000000-4  RH  097%=      5-min Rain = 0
KST2 082103Z 34013KT 00/00 A3029 RMK A01 T000000-4  RH  097%=      5-min Rain = 0
KST2 082104Z 34011KT 00/00 A3029 RMK A01 T000000-4  RH  097%=      5-min Rain = 0
KST2 082105Z 34011KT 00/00 A3029 RMK A01 T000000-4  RH  097%=      5-min Rain = 0
KST2 082106Z 34011KT 00/M00 A3029 RMK A01 T00011004  RH  097%=      5-min Rain = 0
KST2 082107Z 34011KT 00/M00 A3029 RMK A01 T00011004  RH  097%=      5-min Rain = 0
KST2 082108Z 34011KT 00/M00 A3029 RMK A01 T00011004  RH  097%=      5-min Rain = 0
KST2 082109Z 34011KT 00/M00 A3029 RMK A01 T00011004  RH  097%=      5-min Rain = 0
KST2 082110Z 34011KT 00/M00 A3029 RMK A01 T00011003  RH  097%=      5-min Rain = 0
KST2 082111Z 34010KT 00/M00 A3029 RMK A01 T00011003  RH  097%=      5-min Rain = 0.01
KST2 082112Z 34009KT 00/M00 A3029 RMK A01 T00021003  RH  097%=      5-min Rain = 0
KST2 082113Z 34011KT 00/M00 A3029 RMK A01 T00021003  RH  097%=      5-min Rain = 0
KST2 082114Z 35009KT 00/M00 A3029 RMK A01 T00021003  RH  097%=      5-min Rain = 0
KST2 082115Z 34010KT 00/M00 A3028 RMK A01 T00021003  RH  097%=      5-min Rain = 0
KST2 082116Z 34011KT 00/M00 A3028 RMK A01 T00021003  RH  097%=      5-min Rain = 0
KST2 082117Z 34014KT 00/M00 A3028 RMK A01 T00021003  RH  097%=      5-min Rain = 0
KST2 082118Z 34013KT 00/M00 A3028 RMK A01 T00011004  RH  096%=      5-min Rain = 0
KST2 082119Z 34014KT 00/M01 A3028 RMK A01 T00011005  RH  096%=      5-min Rain = 0
KST2 082120Z 34012KT 00/01 A3028 RMK A01 T000000-5  RH  096%=      5-min Rain = 0
KST2 082121Z 35011KT 00/01 A3028 RMK A01 T000000-6  RH  096%=      5-min Rain = 0
KST2 082122Z 35013KT 00/01 A3028 RMK A01 T000000-6  RH  096%=      5-min Rain = 0
KST2 082123Z 34011KT 00/01 A3028 RMK A01 T000000-6  RH  096%=      5-min Rain = 0
KST2 082124Z 34011KT 00/01 A3029 RMK A01 T000000-6  RH  096%=      5-min Rain = 0
KST2 082125Z 34010KT 00/01 A3029 RMK A01 T000000-6  RH  096%=      5-min Rain = 0
KST2 082126Z 33010KT 00/M01 A3029 RMK A01 T00011005  RH  096%=      5-min Rain = 0
KST2 082127Z 33009KT 00/M00 A3028 RMK A01 T00011004  RH  096%=      5-min Rain = 0
KST2 082128Z 33011KT 00/M00 A3028 RMK A01 T00011004  RH  096%=      5-min Rain = 0.01
KST2 082129Z 33011KT 00/M01 A3028 RMK A01 T00011005  RH  096%=      5-min Rain = 0
KST2 082130Z 34012KT 00/M01 A3028 RMK A01 T00011005  RH  096%=      5-min Rain = 0
KST2 082131Z 33012KT 00/01 A3028 RMK A01 T000000-5  RH  096%=      5-min Rain = 0
KST2 082132Z 34011KT 00/01 A3028 RMK A01 T000000-5  RH  096%=      5-min Rain = 0
KST2 082133Z 34011KT 00/01 A3028 RMK A01 T000000-5  RH  096%=      5-min Rain = 0
KST2 082134Z 34012KT 00/01 A3028 RMK A01 T000000-5  RH  096%=      5-min Rain = 0
KST2 082135Z 34011KT 00/01 A3029 RMK A01 T000000-5  RH  096%=      5-min Rain = 0
KST2 082136Z 34012KT 00/01 A3029 RMK A01 T000000-5  RH  096%=      5-min Rain = 0
KST2 082137Z 34012KT 00/M01 A3029 RMK A01 T00011005  RH  096%=      5-min Rain = 0
KST2 082138Z 34012KT 00/M01 A3029 RMK A01 T00011005  RH  096%=      5-min Rain = 0
KST2 082139Z 34010KT 00/01 A3029 RMK A01 T000000-6  RH  096%=      5-min Rain = 0
KST2 082140Z 34009KT 00/01 A3029 RMK A01 T000000-6  RH  096%=      5-min Rain = 0
KST2 082141Z 34010KT 00/M01 A3029 RMK A01 T00011005  RH  096%=      5-min Rain = 0
KST2 082142Z 34011KT 00/M01 A3029 RMK A01 T00011005  RH  096%=      5-min Rain = 0
KST2 082143Z 33011KT 00/M01 A3029 RMK A01 T00011005  RH  096%=      5-min Rain = 0
KST2 082144Z 34010KT 00/01 A3029 RMK A01 T000000-6  RH  096%=      5-min Rain = 0
KST2 082145Z 34010KT 00/01 A3029 RMK A01 T000000-6  RH  096%=      5-min Rain = 0
KST2 082146Z 33009KT 00/01 A3029 RMK A01 T000000-6  RH  095%=      5-min Rain = 0
KST2 082147Z 34009KT 00/M01 A3029 RMK A01 T00011006  RH  095%=      5-min Rain = 0
KST2 082148Z 33009KT 00/01 A3029 RMK A01 T000000-6  RH  095%=      5-min Rain = 0
KST2 082149Z 33009KT 00/01 A3029 RMK A01 T000000-7  RH  095%=      5-min Rain = 0.01
KST2 082150Z 33008KT 00/01 A3029 RMK A01 T000000-7  RH  095%=      5-min Rain = 0
KST2 082151Z 33008KT 00/01 A3029 RMK A01 T000000-7  RH  095%=      5-min Rain = 0
KST2 082152Z 33009KT 00/01 A3029 RMK A01 T000000-6  RH  095%=      5-min Rain = 0
KST2 082153Z 33009KT 00/01 A3029 RMK A01 T000000-6  RH  095%=      5-min Rain = 0
KST2 082154Z 33008KT 00/01 A3029 RMK A01 T000000-6  RH  095%=      5-min Rain = 0
KST2 082155Z 33009KT 00/01 A3029 RMK A01 T000000-6  RH  095%=      5-min Rain = 0
KST2 082156Z 33008KT 00/01 A3028 RMK A01 T000000-7  RH  095%=      5-min Rain = 0
KST2 082157Z 33010KT 00/01 A3028 RMK A01 T000000-7  RH  095%=      5-min Rain = 0
KST2 082158Z 33010KT 00/01 A3028 RMK A01 T00-000-8  RH  095%=      5-min Rain = 0
KST2 082159Z 33009KT 00/01 A3028 RMK A01 T00-000-8  RH  094%=      5-min Rain = 0
KST2 082200Z 33010KT 00/01 A3028 RMK A01 T00-000-9  RH  094%=      5-min Rain = 0
KST2 082201Z 33009KT 00/01 A3028 RMK A01 T00-000-9  RH  094%=      5-min Rain = 0
KST2 082202Z 33010KT 00/01 A3028 RMK A01 T000000-9  RH  094%=      5-min Rain = 0
KST2 082203Z 33009KT 00/01 A3028 RMK A01 T00-00-10  RH  093%=      5-min Rain = 0
KST2 082204Z 33009KT 00/01 A3028 RMK A01 T00-00-10  RH  093%=      5-min Rain = 0
KST2 082205Z 33010KT 00/01 A3028 RMK A01 T00-00-10  RH  093%=      5-min Rain = 0
KST2 082206Z 33009KT 00/01 A3028 RMK A01 T00-00-10  RH  093%=      5-min Rain = 0
KST2 082207Z 33009KT 00/01 A3028 RMK A01 T00-00-10  RH  093%=      5-min Rain = 0
KST2 082208Z 33008KT 00/01 A3028 RMK A01 T000000-9  RH  093%=      5-min Rain = 0
KST2 082209Z 33008KT 00/01 A3028 RMK A01 T000000-9  RH  093%=      5-min Rain = 0
KST2 082210Z 33009KT 00/01 A3028 RMK A01 T000000-9  RH  094%=      5-min Rain = 0
KST2 082211Z 33008KT 00/01 A3028 RMK A01 T000000-9  RH  093%=      5-min Rain = 0
KST2 082212Z 33009KT 00/01 A3028 RMK A01 T00000-10  RH  093%=      5-min Rain = 0
KST2 082213Z 33009KT 00/01 A3028 RMK A01 T00000-10  RH  093%=      5-min Rain = 0
KST2 082214Z 34008KT 00/01 A3028 RMK A01 T00000-10  RH  093%=      5-min Rain = 0
KST2 082215Z 33010KT 00/01 A3028 RMK A01 T00000-10  RH  093%=      5-min Rain = 0
KST2 082216Z 33009KT 00/01 A3028 RMK A01 T00000-10  RH  093%=      5-min Rain = 0
KST2 082217Z 33007KT 00/01 A3028 RMK A01 T00000-10  RH  093%=      5-min Rain = 0
KST2 082218Z 33008KT 00/01 A3028 RMK A01 T00000-10  RH  093%=      5-min Rain = 0
KST2 082219Z 33007KT 00/01 A3028 RMK A01 T00000-10  RH  093%=      5-min Rain = 0
KST2 082220Z 33008KT 00/M01 A3028 RMK A01 T00011009  RH  093%=      5-min Rain = 0
KST2 082221Z 33008KT 00/M01 A3028 RMK A01 T00011010  RH  093%=      5-min Rain = 0
KST2 082222Z 33007KT 00/M01 A3028 RMK A01 T00011010  RH  093%=      5-min Rain = 0
KST2 082223Z 33008KT 00/M01 A3028 RMK A01 T00011010  RH  093%=      5-min Rain = 0
KST2 082224Z 33007KT 00/M01 A3028 RMK A01 T00011010  RH  093%=      5-min Rain = 0
KST2 082225Z 33008KT 00/M01 A3028 RMK A01 T00011009  RH  093%=      5-min Rain = 0
KST2 082226Z 33008KT 00/M01 A3028 RMK A01 T00011009  RH  093%=      5-min Rain = 0
KST2 082227Z 33007KT 00/M01 A3028 RMK A01 T00011010  RH  092%=      5-min Rain = 0
KST2 082228Z 32008KT 00/M01 A3028 RMK A01 T00011010  RH  092%=      5-min Rain = 0.01
KST2 082229Z 32008KT 00/M01 A3028 RMK A01 T00011010  RH  092%=      5-min Rain = 0
KST2 082230Z 32007KT 00/M01 A3028 RMK A01 T00011010  RH  092%=      5-min Rain = 0
KST2 082231Z 33007KT 00/M01 A3028 RMK A01 T00021010  RH  092%=      5-min Rain = 0
KST2 082232Z 32007KT 00/M01 A3028 RMK A01 T00021010  RH  092%=      5-min Rain = 0
KST2 082233Z 32006KT 00/M01 A3028 RMK A01 T00021010  RH  092%=      5-min Rain = 0
KST2 082234Z 32007KT 00/M01 A3028 RMK A01 T00021010  RH  092%=      5-min Rain = 0
KST2 082235Z 32007KT 00/M01 A3028 RMK A01 T00011011  RH  092%=      5-min Rain = 0
KST2 082236Z 32007KT 00/M01 A3028 RMK A01 T00021011  RH  091%=      5-min Rain = 0
KST2 082237Z 32007KT 00/M01 A3028 RMK A01 T00021011  RH  091%=      5-min Rain = 0
KST2 082238Z 32007KT 00/M01 A3028 RMK A01 T00021011  RH  091%=      5-min Rain = 0
KST2 082239Z 33007KT 00/M01 A3028 RMK A01 T00021011  RH  091%=      5-min Rain = 0
KST2 082240Z 32007KT 00/M01 A3028 RMK A01 T00021011  RH  091%=      5-min Rain = 0
KST2 082241Z 32006KT 00/M01 A3028 RMK A01 T00021011  RH  091%=      5-min Rain = 0
KST2 082242Z 32008KT 00/M01 A3028 RMK A01 T00021011  RH  091%=      5-min Rain = 0
KST2 082243Z 32007KT 00/M01 A3028 RMK A01 T00021012  RH  091%=      5-min Rain = 0
KST2 082244Z 32007KT 00/M01 A3028 RMK A01 T00021012  RH  091%=      5-min Rain = 0
KST2 082245Z 32007KT 00/M01 A3028 RMK A01 T00021011  RH  091%=      5-min Rain = 0
KST2 082246Z 32007KT 00/M01 A3028 RMK A01 T00021011  RH  091%=      5-min Rain = 0
KST2 082247Z 32006KT 00/M01 A3028 RMK A01 T00021011  RH  091%=      5-min Rain = 0
KST2 082248Z 32006KT 00/M01 A3028 RMK A01 T00021011  RH  091%=      5-min Rain = 0
KST2 082249Z 32005KT 00/M01 A3028 RMK A01 T00021011  RH  091%=      5-min Rain = 0
KST2 082250Z 31005KT 00/M01 A3028 RMK A01 T00021011  RH  091%=      5-min Rain = 0
KST2 082251Z 32005KT 00/M01 A3028 RMK A01 T00021011  RH  091%=      5-min Rain = 0
KST2 082252Z 31006KT 00/M01 A3029 RMK A01 T00031010  RH  091%=      5-min Rain = 0
KST2 082253Z 31007KT 00/M01 A3029 RMK A01 T00031011  RH  091%=      5-min Rain = 0
KST2 082254Z 32008KT 00/M01 A3029 RMK A01 T00021012  RH  090%=      5-min Rain = 0
KST2 082255Z 31007KT 00/M01 A3029 RMK A01 T00031012  RH  090%=      5-min Rain = 0
KST2 082256Z 32006KT 00/M01 A3029 RMK A01 T00031012  RH  090%=      5-min Rain = 0
KST2 082257Z 31006KT 00/M01 A3029 RMK A01 T00031011  RH  091%=      5-min Rain = 0
KST2 082258Z 31007KT 00/M01 A3029 RMK A01 T00031010  RH  091%=      5-min Rain = 0
KST2 082259Z 31007KT 00/M01 A3029 RMK A01 T00031010  RH  091%=      5-min Rain = 0
KST2 082300Z 31006KT 00/M01 A3029 RMK A01 T00031011  RH  090%=      5-min Rain = 0
KST2 082301Z 31007KT 00/M01 A3029 RMK A01 T00031011  RH  090%=      5-min Rain = 0
KST2 082302Z 31007KT 00/M01 A3029 RMK A01 T00031011  RH  090%=      5-min Rain = 0
KST2 082303Z 32006KT 00/M01 A3029 RMK A01 T00031011  RH  090%=      5-min Rain = 0
KST2 082304Z 31007KT 00/M01 A3029 RMK A01 T00031011  RH  090%=      5-min Rain = 0
KST2 082305Z 32007KT 00/M01 A3029 RMK A01 T00031012  RH  090%=      5-min Rain = 0
KST2 082306Z 32006KT 00/M01 A3029 RMK A01 T00031012  RH  090%=      5-min Rain = 0
KST2 082307Z 32006KT 00/M01 A3029 RMK A01 T00031012  RH  090%=      5-min Rain = 0
KST2 082308Z 31006KT 00/M01 A3029 RMK A01 T00031012  RH  090%=      5-min Rain = 0
KST2 082309Z 32006KT 00/M01 A3029 RMK A01 T00031012  RH  090%=      5-min Rain = 0
KST2 082310Z 32006KT 00/M01 A3029 RMK A01 T00031012  RH  090%=      5-min Rain = 0
KST2 082311Z 32007KT 00/M01 A3029 RMK A01 T00031012  RH  090%=      5-min Rain = 0
KST2 082312Z 31006KT 00/M01 A3029 RMK A01 T00031011  RH  090%=      5-min Rain = 0
KST2 082313Z 32006KT 00/M01 A3029 RMK A01 T00031011  RH  090%=      5-min Rain = 0
KST2 082314Z 32006KT 00/M01 A3029 RMK A01 T00031011  RH  090%=      5-min Rain = 0
KST2 082315Z 31007KT 00/M01 A3029 RMK A01 T00031011  RH  090%=      5-min Rain = 0
KST2 082316Z 31006KT 00/M01 A3029 RMK A01 T00031012  RH  090%=      5-min Rain = 0
KST2 082317Z 32006KT 00/M01 A3029 RMK A01 T00031012  RH  090%=      5-min Rain = 0
KST2 082318Z 31007KT 00/M01 A3029 RMK A01 T00031012  RH  090%=      5-min Rain = 0
KST2 082319Z 31007KT 00/M01 A3029 RMK A01 T00031012  RH  089%=      5-min Rain = 0
KST2 082320Z 31007KT 00/M01 A3029 RMK A01 T00031013  RH  089%=      5-min Rain = 0
KST2 082321Z 31007KT 00/M01 A3029 RMK A01 T00041013  RH  089%=      5-min Rain = 0
KST2 082322Z 31006KT 00/M01 A3029 RMK A01 T00031012  RH  089%=      5-min Rain = 0
KST2 082323Z 31007KT 00/M01 A3029 RMK A01 T00031012  RH  089%=      5-min Rain = 0
KST2 082324Z 31006KT 00/M01 A3029 RMK A01 T00041012  RH  089%=      5-min Rain = 0
KST2 082325Z 31006KT 00/M01 A3029 RMK A01 T00041012  RH  089%=      5-min Rain = 0
KST2 082326Z 31006KT 00/M01 A3029 RMK A01 T00041013  RH  089%=      5-min Rain = 0
KST2 082327Z 31006KT 00/M01 A3029 RMK A01 T00041013  RH  089%=      5-min Rain = 0
KST2 082328Z 31005KT 00/M01 A3029 RMK A01 T00041012  RH  089%=      5-min Rain = 0
KST2 082329Z 31006KT 00/M01 A3029 RMK A01 T00041012  RH  089%=      5-min Rain = 0
KST2 082330Z 30005KT 00/M01 A3029 RMK A01 T00041013  RH  089%=      5-min Rain = 0
KST2 082331Z 31006KT 00/M01 A3029 RMK A01 T00041013  RH  089%=      5-min Rain = 0
KST2 082332Z 31005KT 00/M01 A3029 RMK A01 T00041013  RH  088%=      5-min Rain = 0
KST2 082333Z 31005KT 00/M01 A3029 RMK A01 T00041013  RH  089%=      5-min Rain = 0
KST2 082334Z 31005KT 00/M01 A3029 RMK A01 T00041012  RH  089%=      5-min Rain = 0
KST2 082335Z 30005KT 00/M01 A3029 RMK A01 T00041012  RH  089%=      5-min Rain = 0
KST2 082336Z 31005KT 00/M01 A3029 RMK A01 T00041012  RH  089%=      5-min Rain = 0
KST2 082337Z 30005KT 00/M01 A3029 RMK A01 T00041012  RH  089%=      5-min Rain = 0
KST2 082338Z 30005KT 00/M01 A3029 RMK A01 T00041012  RH  089%=      5-min Rain = 0
KST2 082339Z 30005KT 00/M01 A3029 RMK A01 T00041012  RH  089%=      5-min Rain = 0
KST2 082340Z 30005KT 00/M01 A3029 RMK A01 T00041012  RH  089%=      5-min Rain = 0
KST2 082341Z 30005KT 00/M01 A3029 RMK A01 T00041012  RH  089%=      5-min Rain = 0
KST2 082342Z 31005KT 00/M01 A3029 RMK A01 T00041012  RH  089%=      5-min Rain = 0
KST2 082343Z 30005KT 00/M01 A3029 RMK A01 T00041012  RH  089%=      5-min Rain = 0
KST2 082344Z 31006KT 00/M01 A3029 RMK A01 T00041013  RH  089%=      5-min Rain = 0
KST2 082345Z 30006KT 00/M01 A3029 RMK A01 T00041013  RH  089%=      5-min Rain = 0
KST2 082346Z 30006KT 00/M01 A3029 RMK A01 T00041013  RH  088%=      5-min Rain = 0
KST2 082347Z 30006KT 00/M01 A3029 RMK A01 T00041013  RH  088%=      5-min Rain = 0
KST2 082348Z 30007KT 00/M01 A3029 RMK A01 T00041013  RH  088%=      5-min Rain = 0
KST2 082349Z 30006KT 00/M01 A3029 RMK A01 T00041014  RH  088%=      5-min Rain = 0
KST2 082350Z 30006KT 00/M01 A3029 RMK A01 T00041013  RH  088%=      5-min Rain = 0
KST2 082351Z 30006KT 00/M01 A3029 RMK A01 T00041013  RH  089%=      5-min Rain = 0
KST2 082352Z 31006KT 00/M01 A3029 RMK A01 T00041013  RH  089%=      5-min Rain = 0
KST2 082353Z 30006KT 00/M01 A3029 RMK A01 T00041012  RH  089%=      5-min Rain = 0
KST2 082354Z 30006KT 00/M01 A303 RMK A01 T00041012  RH  089%=      5-min Rain = 0
KST2 082355Z 30006KT 00/M01 A303 RMK A01 T00041012  RH  089%=      5-min Rain = 0
KST2 082356Z 30006KT 00/M01 A303 RMK A01 T00041012  RH  089%=      5-min Rain = 0
KST2 082357Z 30005KT 00/M01 A303 RMK A01 T00041013  RH  089%=      5-min Rain = 0
KST2 082358Z 30005KT 00/M01 A303 RMK A01 T00041013  RH  089%=      5-min Rain = 0
KST2 082359Z 30005KT 00/M01 A303 RMK A01 T00041012  RH  089%=      5-min Rain = 0
KST2 090000Z 30005KT 00/M01 A303 RMK A01 T00041012  RH  089%=      5-min Rain = 0
KST2 090001Z 30005KT 00/M01 A303 RMK A01 T00041012  RH  089%=      5-min Rain = 0
KST2 090002Z 30005KT 00/M01 A303 RMK A01 T00041012  RH  089%=      5-min Rain = 0
KST2 090003Z 30005KT 00/M01 A303 RMK A01 T00041012  RH  089%=      5-min Rain = 0
KST2 090004Z 30005KT 00/M01 A303 RMK A01 T00041012  RH  089%=      5-min Rain = 0
KST2 090005Z 31004KT 00/M01 A303 RMK A01 T00041012  RH  089%=      5-min Rain = 0
KST2 090006Z 31005KT 00/M01 A303 RMK A01 T00041012  RH  089%=      5-min Rain = 0
KST2 090007Z 30004KT 00/M01 A303 RMK A01 T00041011  RH  090%=      5-min Rain = 0
KST2 090008Z 31005KT 00/M01 A303 RMK A01 T00041010  RH  090%=      5-min Rain = 0
KST2 090009Z 31004KT 00/M01 A303 RMK A01 T00041011  RH  090%=      5-min Rain = 0
KST2 090010Z 31004KT 00/M01 A303 RMK A01 T00041011  RH  090%=      5-min Rain = 0
KST2 090011Z 31005KT 00/M01 A303 RMK A01 T00041011  RH  090%=      5-min Rain = 0
KST2 090012Z 31005KT 00/M01 A303 RMK A01 T00041011  RH  090%=      5-min Rain = 0
KST2 090013Z 31004KT 00/M01 A303 RMK A01 T00041011  RH  090%=      5-min Rain = 0
KST2 090014Z 31005KT 00/M01 A303 RMK A01 T00041011  RH  090%=      5-min Rain = 0
KST2 090015Z 31005KT 00/M01 A303 RMK A01 T00041011  RH  090%=      5-min Rain = 0
KST2 090016Z 30005KT 00/M01 A303 RMK A01 T00041011  RH  089%=      5-min Rain = 0
KST2 090017Z 30004KT 00/M01 A303 RMK A01 T00041012  RH  089%=      5-min Rain = 0
KST2 090018Z 31004KT 00/M01 A303 RMK A01 T00041011  RH  090%=      5-min Rain = 0
KST2 090019Z 30004KT 00/M01 A303 RMK A01 T00041011  RH  090%=      5-min Rain = 0
KST2 090020Z 30004KT 00/M01 A303 RMK A01 T00041010  RH  090%=      5-min Rain = 0
KST2 090021Z 30004KT 00/M01 A303 RMK A01 T00041010  RH  090%=      5-min Rain = 0
KST2 090022Z 30005KT 00/M01 A303 RMK A01 T00041010  RH  090%=      5-min Rain = 0
KST2 090023Z 30005KT 00/M01 A303 RMK A01 T00041010  RH  090%=      5-min Rain = 0
KST2 090024Z 30004KT 00/M01 A303 RMK A01 T00041011  RH  090%=      5-min Rain = 0
KST2 090025Z 29005KT 00/M01 A303 RMK A01 T00031011  RH  090%=      5-min Rain = 0
KST2 090026Z 29005KT 00/M01 A303 RMK A01 T00031011  RH  090%=      5-min Rain = 0
KST2 090027Z 30005KT 00/M01 A303 RMK A01 T00031011  RH  090%=      5-min Rain = 0
KST2 090028Z 30005KT 00/M01 A303 RMK A01 T00031011  RH  090%=      5-min Rain = 0
KST2 090029Z 29004KT 00/M01 A303 RMK A01 T00031011  RH  090%=      5-min Rain = 0
KST2 090030Z 30005KT 00/M01 A303 RMK A01 T00031011  RH  090%=      5-min Rain = 0
KST2 090031Z 30005KT 00/M01 A303 RMK A01 T00031011  RH  090%=      5-min Rain = 0
KST2 090032Z 30005KT 00/M01 A303 RMK A01 T00021011  RH  091%=      5-min Rain = 0
KST2 090033Z 30005KT 00/M01 A303 RMK A01 T00031011  RH  091%=      5-min Rain = 0
KST2 090034Z 30005KT 00/M01 A303 RMK A01 T00021011  RH  091%=      5-min Rain = 0
KST2 090035Z 30005KT 00/M01 A303 RMK A01 T00021012  RH  091%=      5-min Rain = 0
KST2 090036Z 30005KT 00/M01 A303 RMK A01 T00021012  RH  091%=      5-min Rain = 0
KST2 090037Z 30005KT 00/M01 A303 RMK A01 T00021011  RH  091%=      5-min Rain = 0
KST2 090038Z 30005KT 00/M01 A303 RMK A01 T00021012  RH  091%=      5-min Rain = 0
KST2 090039Z 30005KT 00/M01 A303 RMK A01 T00021011  RH  091%=      5-min Rain = 0
KST2 090040Z 30005KT 00/M01 A303 RMK A01 T00011012  RH  091%=      5-min Rain = 0
KST2 090041Z 30005KT 00/M01 A303 RMK A01 T00021012  RH  091%=      5-min Rain = 0
KST2 090042Z 30005KT 00/M01 A303 RMK A01 T00011012  RH  091%=      5-min Rain = 0
KST2 090043Z 30005KT 00/M01 A303 RMK A01 T00011012  RH  091%=      5-min Rain = 0
KST2 090044Z 30005KT 00/M01 A303 RMK A01 T00011012  RH  091%=      5-min Rain = 0
KST2 090045Z 30005KT 00/M01 A303 RMK A01 T00011012  RH  091%=      5-min Rain = 0
KST2 090046Z 30005KT 00/M01 A303 RMK A01 T00011013  RH  091%=      5-min Rain = 0.01
KST2 090047Z 30005KT 00/01 A303 RMK A01 T00000-13  RH  091%=      5-min Rain = 0
KST2 090048Z 30005KT 00/01 A303 RMK A01 T00000-13  RH  091%=      5-min Rain = 0
KST2 090049Z 30005KT 00/01 A303 RMK A01 T00-00-13  RH  091%=      5-min Rain = 0
KST2 090050Z 29005KT M00/M01 A303 RMK A01 T10011014  RH  091%=      5-min Rain = 0
KST2 090051Z 29005KT M00/M01 A303 RMK A01 T10011014  RH  091%=      5-min Rain = 0
KST2 090052Z 29004KT M00/M01 A303 RMK A01 T10011014  RH  091%=      5-min Rain = 0
KST2 090053Z 29005KT M00/M02 A303 RMK A01 T10021015  RH  091%=      5-min Rain = 0
KST2 090054Z 29005KT M00/M02 A303 RMK A01 T10021015  RH  091%=      5-min Rain = 0
KST2 090055Z 29005KT M00/M02 A303 RMK A01 T10021015  RH  091%=      5-min Rain = 0
KST2 090056Z 29004KT M00/M02 A303 RMK A01 T10031016  RH  091%=      5-min Rain = 0
KST2 090057Z 29004KT M00/M02 A303 RMK A01 T10031016  RH  091%=      5-min Rain = 0
KST2 090058Z 29005KT M00/M02 A303 RMK A01 T10031016  RH  091%=      5-min Rain = 0
KST2 090059Z 29004KT M00/M02 A303 RMK A01 T10041016  RH  091%=      5-min Rain = 0
KST2 090100Z 29004KT M00/M02 A303 RMK A01 T10041016  RH  091%=      5-min Rain = 0
KST2 090101Z 29004KT M00/M02 A303 RMK A01 T10041016  RH  092%=      5-min Rain = 0
KST2 090102Z 29004KT M01/M02 A303 RMK A01 T10051017  RH  092%=      5-min Rain = 0
KST2 090103Z 29004KT M01/M02 A303 RMK A01 T10051017  RH  092%=      5-min Rain = 0
KST2 090104Z 29004KT M01/M02 A303 RMK A01 T10061017  RH  092%=      5-min Rain = 0
KST2 090105Z 29004KT M01/M02 A303 RMK A01 T10061017  RH  092%=      5-min Rain = 0
KST2 090106Z 28004KT M01/M02 A303 RMK A01 T10061017  RH  092%=      5-min Rain = 0
KST2 090107Z 28004KT M01/M02 A303 RMK A01 T10071017  RH  092%=      5-min Rain = 0
KST2 090108Z 28004KT M01/M02 A303 RMK A01 T10071018  RH  092%=      5-min Rain = 0
KST2 090109Z 28003KT M01/M02 A303 RMK A01 T10071017  RH  093%=      5-min Rain = 0
KST2 090110Z 28004KT M01/M02 A303 RMK A01 T10081018  RH  093%=      5-min Rain = 0
KST2 090111Z 28004KT M01/M02 A303 RMK A01 T10081018  RH  093%=      5-min Rain = 0
KST2 090112Z 28004KT M01/M02 A303 RMK A01 T10081018  RH  093%=      5-min Rain = 0
KST2 090113Z 28004KT M01/M02 A303 RMK A01 T10081019  RH  093%=      5-min Rain = 0
KST2 090114Z 28003KT M01/M02 A303 RMK A01 T10091019  RH  093%=      5-min Rain = 0
KST2 090115Z 28004KT M01/M02 A303 RMK A01 T10091019  RH  093%=      5-min Rain = 0
KST2 090116Z 28004KT M01/M02 A303 RMK A01 T10091019  RH  093%=      5-min Rain = 0
KST2 090117Z 28004KT M01/M02 A303 RMK A01 T10091019  RH  093%=      5-min Rain = 0
KST2 090118Z 28004KT M01/M02 A303 RMK A01 T10091019  RH  093%=      5-min Rain = 0
KST2 090119Z 28004KT M01/M02 A303 RMK A01 T10091019  RH  093%=      5-min Rain = 0
KST2 090120Z 28004KT M01/M02 A303 RMK A01 T10101019  RH  093%=      5-min Rain = 0
KST2 090121Z 28004KT M01/M02 A303 RMK A01 T10101019  RH  093%=      5-min Rain = 0
KST2 090122Z 28004KT M01/M02 A303 RMK A01 T10101019  RH  094%=      5-min Rain = 0
KST2 090123Z 28004KT M01/M02 A303 RMK A01 T10101019  RH  094%=      5-min Rain = 0
KST2 090124Z 28004KT M01/M02 A303 RMK A01 T10111020  RH  094%=      5-min Rain = 0
KST2 090125Z 28004KT M01/M02 A303 RMK A01 T10111020  RH  094%=      5-min Rain = 0
KST2 090126Z 28004KT M01/M02 A303 RMK A01 T10111020  RH  094%=      5-min Rain = 0
KST2 090127Z 28004KT M01/M02 A303 RMK A01 T10111020  RH  094%=      5-min Rain = 0
KST2 090128Z 28005KT M01/M02 A3031 RMK A01 T10121020  RH  094%=      5-min Rain = 0
KST2 090129Z 28005KT M01/M02 A3031 RMK A01 T10121020  RH  094%=      5-min Rain = 0
KST2 090130Z 28005KT M01/M02 A3031 RMK A01 T10121020  RH  094%=      5-min Rain = 0
KST2 090131Z 28005KT M01/M02 A3031 RMK A01 T10131021  RH  094%=      5-min Rain = 0
KST2 090132Z 28005KT M01/M02 A3031 RMK A01 T10131021  RH  094%=      5-min Rain = 0
KST2 090133Z 28005KT M01/M02 A3031 RMK A01 T10131021  RH  094%=      5-min Rain = 0
KST2 090134Z 28005KT M01/M02 A3031 RMK A01 T10131021  RH  094%=      5-min Rain = 0
KST2 090135Z 28005KT M01/M02 A3031 RMK A01 T10131021  RH  094%=      5-min Rain = 0
KST2 090136Z 28005KT M01/M02 A3031 RMK A01 T10131021  RH  094%=      5-min Rain = 0
KST2 090137Z 28005KT M01/M02 A3031 RMK A01 T10131021  RH  094%=      5-min Rain = 0
KST2 090138Z 28005KT M01/M02 A3031 RMK A01 T10131021  RH  094%=      5-min Rain = 0
KST2 090139Z 28005KT M01/M02 A3031 RMK A01 T10121020  RH  094%=      5-min Rain = 0
KST2 090140Z 27005KT M01/M02 A3031 RMK A01 T10121020  RH  094%=      5-min Rain = 0
KST2 090141Z 27005KT M01/M02 A3031 RMK A01 T10121020  RH  094%=      5-min Rain = 0
KST2 090142Z 27005KT M01/M02 A3031 RMK A01 T10111020  RH  094%=      5-min Rain = 0
KST2 090143Z 27005KT M01/M02 A3031 RMK A01 T10111020  RH  094%=      5-min Rain = 0
KST2 090144Z 27005KT M01/M02 A3031 RMK A01 T10111020  RH  094%=      5-min Rain = 0
KST2 090145Z 27005KT M01/M02 A3031 RMK A01 T10111020  RH  094%=      5-min Rain = 0
KST2 090146Z 27005KT M01/M02 A3031 RMK A01 T10111020  RH  094%=      5-min Rain = 0
KST2 090147Z 27005KT M01/M02 A3031 RMK A01 T10111020  RH  094%=      5-min Rain = 0
KST2 090148Z 27005KT M01/M02 A3031 RMK A01 T10111020  RH  094%=      5-min Rain = 0
KST2 090149Z 27005KT M01/M02 A3031 RMK A01 T10111020  RH  093%=      5-min Rain = 0
KST2 090150Z 27005KT M01/M02 A3031 RMK A01 T10111020  RH  093%=      5-min Rain = 0
KST2 090151Z 27006KT M01/M02 A3031 RMK A01 T10101020  RH  093%=      5-min Rain = 0
KST2 090152Z 27005KT M01/M02 A3032 RMK A01 T10101020  RH  093%=      5-min Rain = 0
KST2 090153Z 27005KT M01/M02 A3032 RMK A01 T10101020  RH  093%=      5-min Rain = 0
KST2 090154Z 27005KT M01/M02 A3032 RMK A01 T10101020  RH  093%=      5-min Rain = 0
KST2 090155Z 26005KT M01/M02 A3032 RMK A01 T10101020  RH  093%=      5-min Rain = 0
KST2 090156Z 27005KT M01/M02 A3032 RMK A01 T10101020  RH  093%=      5-min Rain = 0
KST2 090157Z 27005KT M01/M02 A3032 RMK A01 T10101020  RH  093%=      5-min Rain = 0
KST2 090158Z 27005KT M01/M02 A3032 RMK A01 T10101019  RH  093%=      5-min Rain = 0
KST2 090159Z 27005KT M01/M02 A3032 RMK A01 T10101019  RH  093%=      5-min Rain = 0
KST2 090200Z 27004KT M01/M02 A3032 RMK A01 T10101020  RH  093%=      5-min Rain = 0
KST2 090201Z 27005KT M01/M02 A3032 RMK A01 T10091019  RH  093%=      5-min Rain = 0
KST2 090202Z 27005KT M01/M02 A3032 RMK A01 T10101019  RH  093%=      5-min Rain = 0
KST2 090203Z 27005KT M01/M02 A3032 RMK A01 T10091019  RH  093%=      5-min Rain = 0
KST2 090204Z 27006KT M01/M02 A3032 RMK A01 T10091019  RH  093%=      5-min Rain = 0
KST2 090205Z 27006KT M01/M02 A3032 RMK A01 T10091020  RH  093%=      5-min Rain = 0
KST2 090206Z 27006KT M01/M02 A3032 RMK A01 T10091020  RH  093%=      5-min Rain = 0
KST2 090207Z 28007KT M01/M02 A3032 RMK A01 T10091020  RH  093%=      5-min Rain = 0
KST2 090208Z 28007KT M01/M02 A3032 RMK A01 T10091020  RH  092%=      5-min Rain = 0
KST2 090209Z 28007KT M01/M02 A3032 RMK A01 T10091020  RH  092%=      5-min Rain = 0
KST2 090210Z 28007KT M01/M02 A3032 RMK A01 T10101021  RH  092%=      5-min Rain = 0
KST2 090211Z 28006KT M01/M02 A3032 RMK A01 T10091021  RH  092%=      5-min Rain = 0
KST2 090212Z 28006KT M01/M02 A3032 RMK A01 T10091022  RH  091%=      5-min Rain = 0
KST2 090213Z 28006KT M01/M02 A3032 RMK A01 T10091022  RH  091%=      5-min Rain = 0
KST2 090214Z 28006KT M01/M02 A3032 RMK A01 T10091022  RH  091%=      5-min Rain = 0
KST2 090215Z 28006KT M01/M02 A3032 RMK A01 T10091022  RH  091%=      5-min Rain = 0
KST2 090216Z 28006KT M01/M02 A3032 RMK A01 T10091022  RH  091%=      5-min Rain = 0
KST2 090217Z 28006KT M01/M02 A3032 RMK A01 T10101023  RH  091%=      5-min Rain = 0
KST2 090218Z 28005KT M01/M02 A3032 RMK A01 T10101023  RH  091%=      5-min Rain = 0
KST2 090219Z 28005KT M01/M02 A3032 RMK A01 T10101023  RH  091%=      5-min Rain = 0
KST2 090220Z 29005KT M01/M02 A3032 RMK A01 T10101022  RH  091%=      5-min Rain = 0
KST2 090221Z 28005KT M01/M02 A3032 RMK A01 T10101023  RH  091%=      5-min Rain = 0
KST2 090222Z 28005KT M01/M02 A3032 RMK A01 T10101023  RH  091%=      5-min Rain = 0
KST2 090223Z 28005KT M01/M02 A3032 RMK A01 T10101023  RH  091%=      5-min Rain = 0
KST2 090224Z 28005KT M01/M02 A3032 RMK A01 T10111024  RH  091%=      5-min Rain = 0
KST2 090225Z 28005KT M01/M02 A3032 RMK A01 T10111024  RH  091%=      5-min Rain = 0
KST2 090226Z 28005KT M01/M02 A3032 RMK A01 T10111024  RH  091%=      5-min Rain = 0
KST2 090227Z 28005KT M01/M02 A3032 RMK A01 T10111024  RH  091%=      5-min Rain = 0
KST2 090228Z 28005KT M01/M03 A3032 RMK A01 T10111025  RH  091%=      5-min Rain = 0
KST2 090229Z 28005KT M01/M03 A3032 RMK A01 T10121025  RH  091%=      5-min Rain = 0
KST2 090230Z 28005KT M01/M03 A3032 RMK A01 T10121025  RH  091%=      5-min Rain = 0
KST2 090231Z 28005KT M01/M03 A3032 RMK A01 T10121025  RH  091%=      5-min Rain = 0
KST2 090232Z 28005KT M01/M03 A3032 RMK A01 T10131026  RH  091%=      5-min Rain = 0
KST2 090233Z 28005KT M01/M03 A3032 RMK A01 T10131026  RH  091%=      5-min Rain = 0
KST2 090234Z 28005KT M01/M03 A3032 RMK A01 T10131026  RH  091%=      5-min Rain = 0
KST2 090235Z 29005KT M01/M03 A3032 RMK A01 T10141026  RH  091%=      5-min Rain = 0
KST2 090236Z 28005KT M01/M03 A3032 RMK A01 T10141026  RH  091%=      5-min Rain = 0
KST2 090237Z 28005KT M01/M03 A3032 RMK A01 T10141027  RH  091%=      5-min Rain = 0
KST2 090238Z 28005KT M01/M03 A3032 RMK A01 T10141027  RH  091%=      5-min Rain = 0
KST2 090239Z 28005KT M02/M03 A3032 RMK A01 T10151027  RH  091%=      5-min Rain = 0
KST2 090240Z 28005KT M02/M03 A3032 RMK A01 T10151027  RH  091%=      5-min Rain = 0
KST2 090241Z 28005KT M02/M03 A3032 RMK A01 T10151027  RH  092%=      5-min Rain = 0
KST2 090242Z 28005KT M02/M03 A3032 RMK A01 T10161027  RH  092%=      5-min Rain = 0
KST2 090243Z 28005KT M02/M03 A3032 RMK A01 T10161028  RH  092%=      5-min Rain = 0
KST2 090244Z 28005KT M02/M03 A3032 RMK A01 T10161028  RH  092%=      5-min Rain = 0
KST2 090245Z 28005KT M02/M03 A3032 RMK A01 T10161028  RH  092%=      5-min Rain = 0
KST2 090246Z 29005KT M02/M03 A3032 RMK A01 T10161028  RH  092%=      5-min Rain = 0
KST2 090247Z 29005KT M02/M03 A3032 RMK A01 T10161028  RH  092%=      5-min Rain = 0
KST2 090248Z 29005KT M02/M03 A3032 RMK A01 T10171028  RH  092%=      5-min Rain = 0
KST2 090249Z 29005KT M02/M03 A3032 RMK A01 T10171028  RH  092%=      5-min Rain = 0
KST2 090250Z 29005KT M02/M03 A3032 RMK A01 T10171028  RH  092%=      5-min Rain = 0
KST2 090251Z 29005KT M02/M03 A3032 RMK A01 T10171028  RH  092%=      5-min Rain = 0
KST2 090252Z 29005KT M02/M03 A3032 RMK A01 T10171028  RH  092%=      5-min Rain = 0
KST2 090253Z 29005KT M02/M03 A3032 RMK A01 T10171028  RH  092%=      5-min Rain = 0
KST2 090254Z 29005KT M02/M03 A3032 RMK A01 T10171028  RH  092%=      5-min Rain = 0
KST2 090255Z 29005KT M02/M03 A3032 RMK A01 T10171028  RH  092%=      5-min Rain = 0
KST2 090256Z 29005KT M02/M03 A3032 RMK A01 T10181029  RH  092%=      5-min Rain = 0
KST2 090257Z 29004KT M02/M03 A3032 RMK A01 T10181029  RH  092%=      5-min Rain = 0
KST2 090258Z 29004KT M02/M03 A3032 RMK A01 T10181029  RH  092%=      5-min Rain = 0
KST2 090259Z 29003KT M02/M03 A3032 RMK A01 T10181029  RH  093%=      5-min Rain = 0
KST2 090300Z 29004KT M02/M03 A3032 RMK A01 T10181029  RH  093%=      5-min Rain = 0
KST2 090301Z 29004KT M02/M03 A3032 RMK A01 T10191029  RH  093%=      5-min Rain = 0
KST2 090302Z 29004KT M02/M03 A3032 RMK A01 T10191029  RH  093%=      5-min Rain = 0
KST2 090303Z 29004KT M02/M03 A3032 RMK A01 T10191030  RH  093%=      5-min Rain = 0
KST2 090304Z 29004KT M02/M03 A3032 RMK A01 T10191029  RH  093%=      5-min Rain = 0
KST2 090305Z 29004KT M02/M03 A3032 RMK A01 T10191030  RH  093%=      5-min Rain = 0
KST2 090306Z 28005KT M02/M03 A3032 RMK A01 T10201030  RH  093%=      5-min Rain = 0
KST2 090307Z 29004KT M02/M03 A3032 RMK A01 T10201031  RH  093%=      5-min Rain = 0
KST2 090308Z 28005KT M02/M03 A3032 RMK A01 T10211031  RH  093%=      5-min Rain = 0
KST2 090309Z 28005KT M02/M03 A3032 RMK A01 T10211031  RH  093%=      5-min Rain = 0
KST2 090310Z 28005KT M02/M03 A3032 RMK A01 T10211031  RH  093%=      5-min Rain = 0
KST2 090311Z 28005KT M02/M03 A3032 RMK A01 T10211031  RH  093%=      5-min Rain = 0
KST2 090312Z 28005KT M02/M03 A3032 RMK A01 T10211030  RH  093%=      5-min Rain = 0
KST2 090313Z 28006KT M02/M03 A3032 RMK A01 T10211030  RH  093%=      5-min Rain = 0
KST2 090314Z 28006KT M02/M03 A3032 RMK A01 T10211031  RH  093%=      5-min Rain = 0
KST2 090315Z 28006KT M02/M03 A3032 RMK A01 T10211030  RH  093%=      5-min Rain = 0
KST2 090316Z 28005KT M02/M03 A3032 RMK A01 T10211030  RH  093%=      5-min Rain = 0
KST2 090317Z 28006KT M02/M03 A3032 RMK A01 T10211030  RH  093%=      5-min Rain = 0
KST2 090318Z 28005KT M02/M03 A3032 RMK A01 T10211030  RH  093%=      5-min Rain = 0
KST2 090319Z 28005KT M02/M03 A3032 RMK A01 T10211031  RH  093%=      5-min Rain = 0
KST2 090320Z 28006KT M02/M03 A3032 RMK A01 T10211031  RH  093%=      5-min Rain = 0
KST2 090321Z 28006KT M02/M03 A3032 RMK A01 T10211030  RH  094%=      5-min Rain = 0
KST2 090322Z 28006KT M02/M03 A3032 RMK A01 T10211030  RH  094%=      5-min Rain = 0
KST2 090323Z 28006KT M02/M03 A3032 RMK A01 T10211030  RH  094%=      5-min Rain = 0
KST2 090324Z 28006KT M02/M03 A3032 RMK A01 T10211030  RH  094%=      5-min Rain = 0
KST2 090325Z 28006KT M02/M03 A3032 RMK A01 T10201029  RH  093%=      5-min Rain = 0
KST2 090326Z 28006KT M02/M03 A3032 RMK A01 T10201029  RH  093%=      5-min Rain = 0
KST2 090327Z 28006KT M02/M03 A3032 RMK A01 T10201029  RH  093%=      5-min Rain = 0
KST2 090328Z 28007KT M02/M03 A3032 RMK A01 T10201029  RH  093%=      5-min Rain = 0
KST2 090329Z 28006KT M02/M03 A3032 RMK A01 T10191029  RH  093%=      5-min Rain = 0
KST2 090330Z 28006KT M02/M03 A3032 RMK A01 T10181028  RH  093%=      5-min Rain = 0
KST2 090331Z 28006KT M02/M03 A3032 RMK A01 T10181028  RH  093%=      5-min Rain = 0
KST2 090332Z 27006KT M02/M03 A3032 RMK A01 T10181028  RH  093%=      5-min Rain = 0
KST2 090333Z 28006KT M02/M03 A3032 RMK A01 T10181028  RH  093%=      5-min Rain = 0
KST2 090334Z 28006KT M02/M03 A3032 RMK A01 T10181028  RH  093%=      5-min Rain = 0
KST2 090335Z 27006KT M02/M03 A3032 RMK A01 T10181028  RH  092%=      5-min Rain = 0
KST2 090336Z 27007KT M02/M03 A3032 RMK A01 T10181028  RH  092%=      5-min Rain = 0
KST2 090337Z 27006KT M02/M03 A3032 RMK A01 T10181029  RH  092%=      5-min Rain = 0
KST2 090338Z 27007KT M02/M03 A3032 RMK A01 T10171028  RH  092%=      5-min Rain = 0
KST2 090339Z 27007KT M02/M03 A3032 RMK A01 T10171028  RH  092%=      5-min Rain = 0
KST2 090340Z 27007KT M02/M03 A3032 RMK A01 T10171029  RH  092%=      5-min Rain = 0
KST2 090341Z 27006KT M02/M03 A3032 RMK A01 T10171029  RH  092%=      5-min Rain = 0
KST2 090342Z 27007KT M02/M03 A3032 RMK A01 T10171029  RH  092%=      5-min Rain = 0
KST2 090343Z 27007KT M02/M03 A3032 RMK A01 T10171029  RH  092%=      5-min Rain = 0
KST2 090344Z 28007KT M02/M03 A3032 RMK A01 T10171029  RH  091%=      5-min Rain = 0
KST2 090345Z 28007KT M02/M03 A3032 RMK A01 T10161029  RH  091%=      5-min Rain = 0
KST2 090346Z 28007KT M02/M03 A3032 RMK A01 T10161029  RH  091%=      5-min Rain = 0
KST2 090347Z 28007KT M02/M03 A3032 RMK A01 T10171029  RH  091%=      5-min Rain = 0
KST2 090348Z 28007KT M02/M03 A3032 RMK A01 T10161028  RH  091%=      5-min Rain = 0
KST2 090349Z 28007KT M02/M03 A3032 RMK A01 T10161029  RH  091%=      5-min Rain = 0
KST2 090350Z 28006KT M02/M03 A3032 RMK A01 T10161029  RH  091%=      5-min Rain = 0
KST2 090351Z 28006KT M02/M03 A3032 RMK A01 T10161029  RH  091%=      5-min Rain = 0
KST2 090352Z 28007KT M02/M03 A3032 RMK A01 T10161029  RH  091%=      5-min Rain = 0
KST2 090353Z 28007KT M02/M03 A3032 RMK A01 T10161029  RH  091%=      5-min Rain = 0
KST2 090354Z 28007KT M02/M03 A3032 RMK A01 T10161029  RH  091%=      5-min Rain = 0
KST2 090355Z 28007KT M02/M03 A3032 RMK A01 T10161029  RH  091%=      5-min Rain = 0
KST2 090356Z 28006KT M02/M03 A3032 RMK A01 T10161029  RH  090%=      5-min Rain = 0
KST2 090357Z 29007KT M02/M03 A3032 RMK A01 T10161029  RH  090%=      5-min Rain = 0
KST2 090358Z 28006KT M02/M03 A3032 RMK A01 T10161029  RH  091%=      5-min Rain = 0
KST2 090359Z 28006KT M02/M03 A3032 RMK A01 T10161029  RH  091%=      5-min Rain = 0
KST2 090400Z 28006KT M02/M03 A3032 RMK A01 T10161029  RH  091%=      5-min Rain = 0
KST2 090401Z 28007KT M02/M03 A3032 RMK A01 T10171030  RH  091%=      5-min Rain = 0
KST2 090402Z 28006KT M02/M03 A3032 RMK A01 T10171030  RH  091%=      5-min Rain = 0
KST2 090403Z 28007KT M02/M03 A3032 RMK A01 T10171030  RH  091%=      5-min Rain = 0
KST2 090404Z 28006KT M02/M03 A3032 RMK A01 T10171030  RH  091%=      5-min Rain = 0
KST2 090405Z 28007KT M02/M03 A3032 RMK A01 T10181031  RH  091%=      5-min Rain = 0
KST2 090406Z 28007KT M02/M03 A3032 RMK A01 T10181031  RH  091%=      5-min Rain = 0
KST2 090407Z 28007KT M02/M03 A3032 RMK A01 T10181031  RH  091%=      5-min Rain = 0
KST2 090408Z 28007KT M02/M03 A3032 RMK A01 T10181031  RH  091%=      5-min Rain = 0
KST2 090409Z 28007KT M02/M03 A3032 RMK A01 T10181031  RH  091%=      5-min Rain = 0
KST2 090410Z 28007KT M02/M03 A3032 RMK A01 T10181031  RH  091%=      5-min Rain = 0
KST2 090411Z 28007KT M02/M03 A3032 RMK A01 T10181032  RH  091%=      5-min Rain = 0
KST2 090412Z 28007KT M02/M03 A3032 RMK A01 T10181032  RH  091%=      5-min Rain = 0
KST2 090413Z 28007KT M02/M03 A3032 RMK A01 T10181032  RH  090%=      5-min Rain = 0
KST2 090414Z 28007KT M02/M03 A3032 RMK A01 T10181032  RH  090%=      5-min Rain = 0
KST2 090415Z 28007KT M02/M03 A3032 RMK A01 T10181032  RH  090%=      5-min Rain = 0
KST2 090416Z 27007KT M02/M03 A3032 RMK A01 T10181032  RH  090%=      5-min Rain = 0
KST2 090417Z 28007KT M02/M03 A3032 RMK A01 T10181033  RH  090%=      5-min Rain = 0
KST2 090418Z 28007KT M02/M03 A3032 RMK A01 T10181033  RH  090%=      5-min Rain = 0
KST2 090419Z 28007KT M02/M03 A3032 RMK A01 T10191033  RH  090%=      5-min Rain = 0
KST2 090420Z 28007KT M02/M03 A3032 RMK A01 T10191033  RH  090%=      5-min Rain = 0
KST2 090421Z 28007KT M02/M03 A3032 RMK A01 T10181033  RH  089%=      5-min Rain = 0
KST2 090422Z 28007KT M02/M03 A3032 RMK A01 T10191034  RH  089%=      5-min Rain = 0
KST2 090423Z 28007KT M02/M03 A3032 RMK A01 T10191034  RH  089%=      5-min Rain = 0
KST2 090424Z 28007KT M02/M03 A3032 RMK A01 T10191034  RH  089%=      5-min Rain = 0
KST2 090425Z 28007KT M02/M04 A3032 RMK A01 T10191035  RH  089%=      5-min Rain = 0
KST2 090426Z 28008KT M02/M04 A3033 RMK A01 T10191035  RH  089%=      5-min Rain = 0
KST2 090427Z 28007KT M02/M04 A3033 RMK A01 T10201035  RH  089%=      5-min Rain = 0
KST2 090428Z 28007KT M02/M04 A3033 RMK A01 T10191035  RH  089%=      5-min Rain = 0
KST2 090429Z 28007KT M02/M04 A3033 RMK A01 T10191035  RH  089%=      5-min Rain = 0
KST2 090430Z 28007KT M02/M04 A3033 RMK A01 T10191035  RH  089%=      5-min Rain = 0
KST2 090431Z 27007KT M02/M04 A3033 RMK A01 T10191035  RH  089%=      5-min Rain = 0
KST2 090432Z 28007KT M02/M04 A3033 RMK A01 T10201036  RH  089%=      5-min Rain = 0
KST2 090433Z 28007KT M02/M04 A3033 RMK A01 T10201036  RH  089%=      5-min Rain = 0
KST2 090434Z 28008KT M02/M04 A3033 RMK A01 T10191035  RH  089%=      5-min Rain = 0
KST2 090435Z 28007KT M02/M04 A3033 RMK A01 T10191036  RH  088%=      5-min Rain = 0
KST2 090436Z 28007KT M02/M04 A3033 RMK A01 T10191036  RH  088%=      5-min Rain = 0
KST2 090437Z 28007KT M02/M04 A3033 RMK A01 T10191036  RH  088%=      5-min Rain = 0
KST2 090438Z 28007KT M02/M04 A3033 RMK A01 T10191036  RH  088%=      5-min Rain = 0
KST2 090439Z 28008KT M02/M04 A3033 RMK A01 T10191036  RH  088%=      5-min Rain = 0
KST2 090440Z 28007KT M02/M04 A3033 RMK A01 T10191036  RH  088%=      5-min Rain = 0
KST2 090441Z 28007KT M02/M04 A3033 RMK A01 T10191036  RH  088%=      5-min Rain = 0
KST2 090442Z 28007KT M02/M04 A3033 RMK A01 T10191036  RH  088%=      5-min Rain = 0
KST2 090443Z 28007KT M02/M04 A3033 RMK A01 T10191036  RH  088%=      5-min Rain = 0
KST2 090444Z 28007KT M02/M04 A3033 RMK A01 T10191037  RH  088%=      5-min Rain = 0
KST2 090445Z 28007KT M02/M04 A3033 RMK A01 T10201037  RH  088%=      5-min Rain = 0
KST2 090446Z 28007KT M02/M04 A3033 RMK A01 T10201037  RH  088%=      5-min Rain = 0
KST2 090447Z 28007KT M02/M04 A3033 RMK A01 T10201037  RH  088%=      5-min Rain = 0
KST2 090448Z 28007KT M02/M04 A3033 RMK A01 T10201037  RH  088%=      5-min Rain = 0
KST2 090449Z 29007KT M02/M04 A3033 RMK A01 T10201038  RH  088%=      5-min Rain = 0
KST2 090450Z 29007KT M02/M04 A3033 RMK A01 T10201037  RH  088%=      5-min Rain = 0
KST2 090451Z 29006KT M02/M04 A3033 RMK A01 T10201037  RH  088%=      5-min Rain = 0
KST2 090452Z 29007KT M02/M04 A3033 RMK A01 T10201037  RH  088%=      5-min Rain = 0
KST2 090453Z 29007KT M02/M04 A3033 RMK A01 T10201037  RH  088%=      5-min Rain = 0
KST2 090454Z 29007KT M02/M04 A3033 RMK A01 T10201037  RH  088%=      5-min Rain = 0
KST2 090455Z 29007KT M02/M04 A3033 RMK A01 T10201037  RH  088%=      5-min Rain = 0
KST2 090456Z 29006KT M02/M04 A3033 RMK A01 T10211037  RH  089%=      5-min Rain = 0
KST2 090457Z 29006KT M02/M04 A3033 RMK A01 T10211037  RH  089%=      5-min Rain = 0
KST2 090458Z 29007KT M02/M04 A3033 RMK A01 T10211037  RH  089%=      5-min Rain = 0
KST2 090459Z 29006KT M02/M04 A3033 RMK A01 T10211037  RH  089%=      5-min Rain = 0
KST2 090500Z 29006KT M02/M04 A3032 RMK A01 T10211036  RH  089%=      5-min Rain = 0
KST2 090501Z 29006KT M02/M04 A3032 RMK A01 T10211037  RH  089%=      5-min Rain = 0
KST2 090502Z 29006KT M02/M04 A3032 RMK A01 T10211036  RH  089%=      5-min Rain = 0
KST2 090503Z 29006KT M02/M04 A3032 RMK A01 T10211037  RH  089%=      5-min Rain = 0
KST2 090504Z 29007KT M02/M04 A3032 RMK A01 T10211036  RH  089%=      5-min Rain = 0
KST2 090505Z 29007KT M02/M04 A3032 RMK A01 T10211036  RH  090%=      5-min Rain = 0
KST2 090506Z 29007KT M02/M04 A3032 RMK A01 T10211036  RH  090%=      5-min Rain = 0
KST2 090507Z 29007KT M02/M04 A3033 RMK A01 T10211036  RH  090%=      5-min Rain = 0
KST2 090508Z 29007KT M02/M04 A3033 RMK A01 T10211036  RH  090%=      5-min Rain = 0
KST2 090509Z 29007KT M02/M04 A3033 RMK A01 T10221037  RH  089%=      5-min Rain = 0
KST2 090510Z 28007KT M02/M04 A3033 RMK A01 T10211037  RH  089%=      5-min Rain = 0
KST2 090511Z 28007KT M02/M04 A3033 RMK A01 T10211037  RH  089%=      5-min Rain = 0
KST2 090512Z 28007KT M02/M04 A3033 RMK A01 T10211037  RH  089%=      5-min Rain = 0
KST2 090513Z 28007KT M02/M04 A3033 RMK A01 T10211037  RH  089%=      5-min Rain = 0
KST2 090514Z 28008KT M02/M04 A3033 RMK A01 T10211037  RH  089%=      5-min Rain = 0
KST2 090515Z 28008KT M02/M04 A3033 RMK A01 T10211037  RH  089%=      5-min Rain = 0
KST2 090516Z 28008KT M02/M04 A3033 RMK A01 T10211037  RH  089%=      5-min Rain = 0
KST2 090517Z 28008KT M02/M04 A3033 RMK A01 T10211037  RH  089%=      5-min Rain = 0
KST2 090518Z 28008KT M02/M04 A3033 RMK A01 T10201037  RH  088%=      5-min Rain = 0
KST2 090519Z 28008KT M02/M04 A3033 RMK A01 T10201037  RH  088%=      5-min Rain = 0
KST2 090520Z 28008KT M02/M04 A3033 RMK A01 T10191036  RH  088%=      5-min Rain = 0
KST2 090521Z 28008KT M02/M04 A3033 RMK A01 T10191037  RH  088%=      5-min Rain = 0
KST2 090522Z 28007KT M02/M04 A3033 RMK A01 T10181036  RH  087%=      5-min Rain = 0
KST2 090523Z 28007KT M02/M04 A3033 RMK A01 T10181037  RH  087%=      5-min Rain = 0
KST2 090524Z 28007KT M02/M04 A3033 RMK A01 T10181036  RH  087%=      5-min Rain = 0
KST2 090525Z 28007KT M02/M04 A3033 RMK A01 T10181037  RH  087%=      5-min Rain = 0
KST2 090526Z 28008KT M02/M04 A3033 RMK A01 T10181037  RH  087%=      5-min Rain = 0
KST2 090527Z 28007KT M02/M04 A3033 RMK A01 T10191037  RH  087%=      5-min Rain = 0
KST2 090528Z 28007KT M02/M04 A3033 RMK A01 T10191037  RH  087%=      5-min Rain = 0
KST2 090529Z 28007KT M02/M04 A3033 RMK A01 T10191037  RH  087%=      5-min Rain = 0
KST2 090530Z 28007KT M02/M04 A3033 RMK A01 T10191037  RH  087%=      5-min Rain = 0
KST2 090531Z 28007KT M02/M04 A3033 RMK A01 T10191037  RH  087%=      5-min Rain = 0
KST2 090532Z 28007KT M02/M04 A3033 RMK A01 T10191037  RH  088%=      5-min Rain = 0
KST2 090533Z 28008KT M02/M04 A3033 RMK A01 T10191037  RH  088%=      5-min Rain = 0
KST2 090534Z 28007KT M02/M04 A3033 RMK A01 T10191037  RH  088%=      5-min Rain = 0
KST2 090535Z 28007KT M02/M04 A3033 RMK A01 T10191036  RH  088%=      5-min Rain = 0
KST2 090536Z 28007KT M02/M04 A3033 RMK A01 T10191037  RH  088%=      5-min Rain = 0
KST2 090537Z 28007KT M02/M04 A3033 RMK A01 T10191036  RH  088%=      5-min Rain = 0
KST2 090538Z 28007KT M02/M04 A3033 RMK A01 T10191037  RH  088%=      5-min Rain = 0
KST2 090539Z 28008KT M02/M04 A3033 RMK A01 T10191036  RH  088%=      5-min Rain = 0
KST2 090540Z 28008KT M02/M04 A3033 RMK A01 T10191036  RH  088%=      5-min Rain = 0
KST2 090541Z 28008KT M02/M04 A3033 RMK A01 T10191036  RH  088%=      5-min Rain = 0
KST2 090542Z 28007KT M02/M04 A3033 RMK A01 T10191036  RH  088%=      5-min Rain = 0
KST2 090543Z 29007KT M02/M04 A3033 RMK A01 T10191036  RH  088%=      5-min Rain = 0
KST2 090544Z 29007KT M02/M04 A3033 RMK A01 T10191036  RH  089%=      5-min Rain = 0
KST2 090545Z 29007KT M02/M04 A3033 RMK A01 T10191035  RH  089%=      5-min Rain = 0
KST2 090546Z 29007KT M02/M04 A3033 RMK A01 T10191035  RH  089%=      5-min Rain = 0
KST2 090547Z 29007KT M02/M04 A3033 RMK A01 T10191035  RH  089%=      5-min Rain = 0
KST2 090548Z 29007KT M02/M04 A3033 RMK A01 T10191035  RH  089%=      5-min Rain = 0
KST2 090549Z 29007KT M02/M04 A3033 RMK A01 T10191035  RH  089%=      5-min Rain = 0
KST2 090550Z 28007KT M02/M03 A3033 RMK A01 T10191034  RH  089%=      5-min Rain = 0
KST2 090551Z 29007KT M02/M03 A3033 RMK A01 T10191034  RH  089%=      5-min Rain = 0
KST2 090552Z 29007KT M02/M03 A3033 RMK A01 T10191034  RH  089%=      5-min Rain = 0
KST2 090553Z 28007KT M02/M04 A3033 RMK A01 T10201035  RH  089%=      5-min Rain = 0
KST2 090554Z 28006KT M02/M04 A3033 RMK A01 T10201035  RH  090%=      5-min Rain = 0
KST2 090555Z 28006KT M02/M04 A3033 RMK A01 T10201035  RH  090%=      5-min Rain = 0
KST2 090556Z 29006KT M02/M03 A3033 RMK A01 T10201034  RH  090%=      5-min Rain = 0
KST2 090557Z 29006KT M02/M03 A3033 RMK A01 T10201034  RH  090%=      5-min Rain = 0
KST2 090558Z 29006KT M02/M03 A3033 RMK A01 T10201034  RH  090%=      5-min Rain = 0
KST2 090559Z 29006KT M02/M03 A3033 RMK A01 T10201034  RH  090%=      5-min Rain = 0

Page generated in 0.0903 seconds.